<?xml version="1.0" encoding="UTF-8" standalone="yes"?>
<gpx
 xmlns="http://www.topografix.com/GPX/1/1"
 creator="OziExplorer Version 3956f - http://www.oziexplorer.com"
 version="1.1"
 xmlns:xsi="http://www.w3.org/2001/XMLSchema-instance"
 xsi:schemaLocation="http://www.topografix.com/GPX/1/1 http://www.topografix.com/GPX/1/1/gpx.xsd">
<metadata>
 <time>2024-03-20T06:21:48Z</time>
 <bounds minlat="31.001620" minlon="35.231470" maxlat="31.052220" maxlon="35.311430"/>
</metadata>
<wpt lat="31.0016761" lon="35.2796638">
 <time>2024-03-20T08:17:40.833Z</time>
 <name>Start/Finish</name>
 <sym>Flag, Red</sym>
</wpt>
<wpt lat="31.0025378" lon="35.2721428">
 <time>2024-03-20T08:17:40.858Z</time>
 <name>Tatspit4</name>
 <sym>Flag, Red</sym>
</wpt>
<wpt lat="31.0073940" lon="35.2698039">
 <time>2024-03-20T08:17:40.858Z</time>
 <name>Doroga#25</name>
 <sym>Flag, Red</sym>
</wpt>
<wpt lat="31.0225814" lon="35.2457714">
 <time>2024-03-20T08:17:40.859Z</time>
 <name>Jipovka</name>
 <sym>Flag, Red</sym>
</wpt>
<wpt lat="31.0467678" lon="35.2447575">
 <time>2024-03-20T08:17:40.860Z</time>
 <name>HarSvaim</name>
 <sym>Flag, Red</sym>
</wpt>
<wpt lat="31.0230800" lon="35.3078430">
 <time>2024-03-20T08:17:40.860Z</time>
 <name>OtvVlevo</name>
 <sym>Flag, Red</sym>
</wpt>
<wpt lat="31.0207538" lon="35.3114265">
 <time>2024-03-20T08:17:40.861Z</time>
 <name>Tatspit5</name>
 <sym>Flag, Red</sym>
</wpt>
<wpt lat="31.0090240" lon="35.2887779">
 <time>2024-03-20T08:17:40.862Z</time>
 <name>GeveyPeres</name>
 <sym>Flag, Red</sym>
</wpt>
<wpt lat="31.0048316" lon="35.2747231">
 <time>2024-03-20T08:17:40.863Z</time>
 <name>Vlevo</name>
 <sym>Flag, Red</sym>
</wpt>
<wpt lat="31.0366300" lon="35.2777200">
 <time>2024-03-20T08:17:40.863Z</time>
 <name>Tatspit3</name>
 <sym>Flag, Red</sym>
</wpt>
<wpt lat="31.0376300" lon="35.2718400">
 <time>2024-03-20T08:17:40.864Z</time>
 <name>Tatspit2</name>
 <sym>Flag, Red</sym>
</wpt>
<trk>
 <name>Peres_30km.780m</name>
 <desc>Peres_30km.780m</desc>
<trkseg>
<trkpt lat="31.0016200" lon="35.2796000">
<ele>31.380001</ele>
<time>2024-03-20T08:17:40.864Z</time>
</trkpt>
<trkpt lat="31.0033400" lon="35.2761100">
<ele>44.119999</ele>
<time>2024-03-20T08:17:40.864Z</time>
</trkpt>
<trkpt lat="31.0037800" lon="35.2753800">
<ele>49.440002</ele>
<time>2024-03-20T08:17:40.864Z</time>
</trkpt>
<trkpt lat="31.0046200" lon="35.2744400">
<ele>53.639999</ele>
<time>2024-03-20T08:17:40.864Z</time>
</trkpt>
<trkpt lat="31.0043900" lon="35.2738900">
<ele>54.209999</ele>
<time>2024-03-20T08:17:40.864Z</time>
</trkpt>
<trkpt lat="31.0045100" lon="35.2726600">
<ele>51.290001</ele>
<time>2024-03-20T08:17:40.864Z</time>
</trkpt>
<trkpt lat="31.0036400" lon="35.2725900">
<ele>52.570000</ele>
<time>2024-03-20T08:17:40.864Z</time>
</trkpt>
<trkpt lat="31.0025300" lon="35.2721400">
<ele>57.919998</ele>
<time>2024-03-20T08:17:40.864Z</time>
</trkpt>
<trkpt lat="31.0034700" lon="35.2725100">
<ele>53.860001</ele>
<time>2024-03-20T08:17:40.864Z</time>
</trkpt>
<trkpt lat="31.0045900" lon="35.2727700">
<ele>50.430000</ele>
<time>2024-03-20T08:17:40.864Z</time>
</trkpt>
<trkpt lat="31.0043900" lon="35.2738800">
<ele>54.110001</ele>
<time>2024-03-20T08:17:40.864Z</time>
</trkpt>
<trkpt lat="31.0048500" lon="35.2735200">
<ele>52.449997</ele>
<time>2024-03-20T08:17:40.864Z</time>
</trkpt>
<trkpt lat="31.0056400" lon="35.2727000">
<ele>55.869999</ele>
<time>2024-03-20T08:17:40.864Z</time>
</trkpt>
<trkpt lat="31.0061800" lon="35.2719900">
<ele>62.749996</ele>
<time>2024-03-20T08:17:40.864Z</time>
</trkpt>
<trkpt lat="31.0061600" lon="35.2715000">
<ele>65.549995</ele>
<time>2024-03-20T08:17:40.864Z</time>
</trkpt>
<trkpt lat="31.0059900" lon="35.2710900">
<ele>71.520004</ele>
<time>2024-03-20T08:17:40.864Z</time>
</trkpt>
<trkpt lat="31.0060100" lon="35.2706000">
<ele>77.920006</ele>
<time>2024-03-20T08:17:40.864Z</time>
</trkpt>
<trkpt lat="31.0061000" lon="35.2704000">
<ele>78.099998</ele>
<time>2024-03-20T08:17:40.864Z</time>
</trkpt>
<trkpt lat="31.0065100" lon="35.2701000">
<ele>86.410004</ele>
<time>2024-03-20T08:17:40.864Z</time>
</trkpt>
<trkpt lat="31.0073500" lon="35.2700800">
<ele>95.580002</ele>
<time>2024-03-20T08:17:40.864Z</time>
</trkpt>
<trkpt lat="31.0073700" lon="35.2698000">
<ele>96.849998</ele>
<time>2024-03-20T08:17:40.864Z</time>
</trkpt>
<trkpt lat="31.0071200" lon="35.2693900">
<ele>97.980003</ele>
<time>2024-03-20T08:17:40.864Z</time>
</trkpt>
<trkpt lat="31.0068600" lon="35.2690700">
<ele>103.590004</ele>
<time>2024-03-20T08:17:40.864Z</time>
</trkpt>
<trkpt lat="31.0050600" lon="35.2675300">
<ele>129.289993</ele>
<time>2024-03-20T08:17:40.864Z</time>
</trkpt>
<trkpt lat="31.0043900" lon="35.2669800">
<ele>136.339996</ele>
<time>2024-03-20T08:17:40.864Z</time>
</trkpt>
<trkpt lat="31.0032000" lon="35.2654800">
<ele>149.699997</ele>
<time>2024-03-20T08:17:40.864Z</time>
</trkpt>
<trkpt lat="31.0030000" lon="35.2651200">
<ele>155.190002</ele>
<time>2024-03-20T08:17:40.864Z</time>
</trkpt>
<trkpt lat="31.0028500" lon="35.2646900">
<ele>157.360001</ele>
<time>2024-03-20T08:17:40.864Z</time>
</trkpt>
<trkpt lat="31.0028300" lon="35.2642600">
<ele>161.019989</ele>
<time>2024-03-20T08:17:40.864Z</time>
</trkpt>
<trkpt lat="31.0029400" lon="35.2637900">
<ele>165.690002</ele>
<time>2024-03-20T08:17:40.864Z</time>
</trkpt>
<trkpt lat="31.0036500" lon="35.2622300">
<ele>181.090012</ele>
<time>2024-03-20T08:17:40.864Z</time>
</trkpt>
<trkpt lat="31.0039800" lon="35.2615600">
<ele>188.300003</ele>
<time>2024-03-20T08:17:40.864Z</time>
</trkpt>
<trkpt lat="31.0041600" lon="35.2611300">
<ele>192.809998</ele>
<time>2024-03-20T08:17:40.864Z</time>
</trkpt>
<trkpt lat="31.0042600" lon="35.2608300">
<ele>196.350006</ele>
<time>2024-03-20T08:17:40.864Z</time>
</trkpt>
<trkpt lat="31.0043800" lon="35.2602800">
<ele>199.830002</ele>
<time>2024-03-20T08:17:40.864Z</time>
</trkpt>
<trkpt lat="31.0044400" lon="35.2598700">
<ele>201.919998</ele>
<time>2024-03-20T08:17:40.864Z</time>
</trkpt>
<trkpt lat="31.0045500" lon="35.2595500">
<ele>206.090012</ele>
<time>2024-03-20T08:17:40.864Z</time>
</trkpt>
<trkpt lat="31.0046900" lon="35.2593000">
<ele>208.419998</ele>
<time>2024-03-20T08:17:40.864Z</time>
</trkpt>
<trkpt lat="31.0048400" lon="35.2592100">
<ele>212.440002</ele>
<time>2024-03-20T08:17:40.864Z</time>
</trkpt>
<trkpt lat="31.0050100" lon="35.2591900">
<ele>218.449997</ele>
<time>2024-03-20T08:17:40.864Z</time>
</trkpt>
<trkpt lat="31.0051900" lon="35.2592500">
<ele>219.770004</ele>
<time>2024-03-20T08:17:40.864Z</time>
</trkpt>
<trkpt lat="31.0053500" lon="35.2595000">
<ele>221.760010</ele>
<time>2024-03-20T08:17:40.864Z</time>
</trkpt>
<trkpt lat="31.0057000" lon="35.2605100">
<ele>229.559998</ele>
<time>2024-03-20T08:17:40.864Z</time>
</trkpt>
<trkpt lat="31.0058000" lon="35.2606500">
<ele>227.119995</ele>
<time>2024-03-20T08:17:40.864Z</time>
</trkpt>
<trkpt lat="31.0059600" lon="35.2607700">
<ele>225.180008</ele>
<time>2024-03-20T08:17:40.864Z</time>
</trkpt>
<trkpt lat="31.0061600" lon="35.2608100">
<ele>224.200012</ele>
<time>2024-03-20T08:17:40.864Z</time>
</trkpt>
<trkpt lat="31.0063300" lon="35.2608000">
<ele>219.289993</ele>
<time>2024-03-20T08:17:40.864Z</time>
</trkpt>
<trkpt lat="31.0066800" lon="35.2607300">
<ele>219.289993</ele>
<time>2024-03-20T08:17:40.864Z</time>
</trkpt>
<trkpt lat="31.0069000" lon="35.2606500">
<ele>229.110001</ele>
<time>2024-03-20T08:17:40.864Z</time>
</trkpt>
<trkpt lat="31.0070500" lon="35.2604800">
<ele>234.730011</ele>
<time>2024-03-20T08:17:40.864Z</time>
</trkpt>
<trkpt lat="31.0071600" lon="35.2601900">
<ele>236.949997</ele>
<time>2024-03-20T08:17:40.864Z</time>
</trkpt>
<trkpt lat="31.0072900" lon="35.2596200">
<ele>239.950012</ele>
<time>2024-03-20T08:17:40.864Z</time>
</trkpt>
<trkpt lat="31.0074400" lon="35.2591900">
<ele>243.550003</ele>
<time>2024-03-20T08:17:40.864Z</time>
</trkpt>
<trkpt lat="31.0076300" lon="35.2588600">
<ele>245.550003</ele>
<time>2024-03-20T08:17:40.864Z</time>
</trkpt>
<trkpt lat="31.0079600" lon="35.2585700">
<ele>246.020004</ele>
<time>2024-03-20T08:17:40.864Z</time>
</trkpt>
<trkpt lat="31.0083800" lon="35.2583200">
<ele>252.960007</ele>
<time>2024-03-20T08:17:40.864Z</time>
</trkpt>
<trkpt lat="31.0086500" lon="35.2583300">
<ele>263.220001</ele>
<time>2024-03-20T08:17:40.864Z</time>
</trkpt>
<trkpt lat="31.0088700" lon="35.2584700">
<ele>258.290009</ele>
<time>2024-03-20T08:17:40.864Z</time>
</trkpt>
<trkpt lat="31.0099500" lon="35.2593600">
<ele>259.570007</ele>
<time>2024-03-20T08:17:40.864Z</time>
</trkpt>
<trkpt lat="31.0104900" lon="35.2598500">
<ele>258.510010</ele>
<time>2024-03-20T08:17:40.864Z</time>
</trkpt>
<trkpt lat="31.0107600" lon="35.2599400">
<ele>260.470001</ele>
<time>2024-03-20T08:17:40.864Z</time>
</trkpt>
<trkpt lat="31.0110200" lon="35.2598900">
<ele>266.779999</ele>
<time>2024-03-20T08:17:40.864Z</time>
</trkpt>
<trkpt lat="31.0119400" lon="35.2586500">
<ele>278.200012</ele>
<time>2024-03-20T08:17:40.864Z</time>
</trkpt>
<trkpt lat="31.0124600" lon="35.2580000">
<ele>280.339996</ele>
<time>2024-03-20T08:17:40.864Z</time>
</trkpt>
<trkpt lat="31.0126800" lon="35.2578000">
<ele>277.829987</ele>
<time>2024-03-20T08:17:40.864Z</time>
</trkpt>
<trkpt lat="31.0129000" lon="35.2577300">
<ele>276.640015</ele>
<time>2024-03-20T08:17:40.864Z</time>
</trkpt>
<trkpt lat="31.0131000" lon="35.2576800">
<ele>275.000000</ele>
<time>2024-03-20T08:17:40.864Z</time>
</trkpt>
<trkpt lat="31.0143000" lon="35.2577500">
<ele>291.869995</ele>
<time>2024-03-20T08:17:40.864Z</time>
</trkpt>
<trkpt lat="31.0146200" lon="35.2577400">
<ele>294.869995</ele>
<time>2024-03-20T08:17:40.864Z</time>
</trkpt>
<trkpt lat="31.0148000" lon="35.2576800">
<ele>295.600006</ele>
<time>2024-03-20T08:17:40.864Z</time>
</trkpt>
<trkpt lat="31.0149400" lon="35.2575800">
<ele>295.990021</ele>
<time>2024-03-20T08:17:40.864Z</time>
</trkpt>
<trkpt lat="31.0151600" lon="35.2572500">
<ele>295.600006</ele>
<time>2024-03-20T08:17:40.864Z</time>
</trkpt>
<trkpt lat="31.0155200" lon="35.2565700">
<ele>299.399994</ele>
<time>2024-03-20T08:17:40.864Z</time>
</trkpt>
<trkpt lat="31.0158500" lon="35.2559900">
<ele>305.649994</ele>
<time>2024-03-20T08:17:40.864Z</time>
</trkpt>
<trkpt lat="31.0161300" lon="35.2557000">
<ele>307.550018</ele>
<time>2024-03-20T08:17:40.864Z</time>
</trkpt>
<trkpt lat="31.0164500" lon="35.2554700">
<ele>305.440002</ele>
<time>2024-03-20T08:17:40.864Z</time>
</trkpt>
<trkpt lat="31.0167500" lon="35.2553500">
<ele>303.540009</ele>
<time>2024-03-20T08:17:40.864Z</time>
</trkpt>
<trkpt lat="31.0170800" lon="35.2553200">
<ele>305.949982</ele>
<time>2024-03-20T08:17:40.864Z</time>
</trkpt>
<trkpt lat="31.0175800" lon="35.2553300">
<ele>315.829987</ele>
<time>2024-03-20T08:17:40.864Z</time>
</trkpt>
<trkpt lat="31.0180300" lon="35.2553800">
<ele>332.760010</ele>
<time>2024-03-20T08:17:40.864Z</time>
</trkpt>
<trkpt lat="31.0182800" lon="35.2554800">
<ele>328.880005</ele>
<time>2024-03-20T08:17:40.864Z</time>
</trkpt>
<trkpt lat="31.0189200" lon="35.2559000">
<ele>320.860016</ele>
<time>2024-03-20T08:17:40.864Z</time>
</trkpt>
<trkpt lat="31.0191600" lon="35.2559600">
<ele>320.380005</ele>
<time>2024-03-20T08:17:40.864Z</time>
</trkpt>
<trkpt lat="31.0194200" lon="35.2559600">
<ele>317.970001</ele>
<time>2024-03-20T08:17:40.864Z</time>
</trkpt>
<trkpt lat="31.0196400" lon="35.2558800">
<ele>319.290009</ele>
<time>2024-03-20T08:17:40.864Z</time>
</trkpt>
<trkpt lat="31.0199500" lon="35.2556200">
<ele>323.420013</ele>
<time>2024-03-20T08:17:40.864Z</time>
</trkpt>
<trkpt lat="31.0200600" lon="35.2554400">
<ele>325.929993</ele>
<time>2024-03-20T08:17:40.864Z</time>
</trkpt>
<trkpt lat="31.0201700" lon="35.2551600">
<ele>329.609985</ele>
<time>2024-03-20T08:17:40.864Z</time>
</trkpt>
<trkpt lat="31.0202000" lon="35.2546900">
<ele>332.420013</ele>
<time>2024-03-20T08:17:40.864Z</time>
</trkpt>
<trkpt lat="31.0201600" lon="35.2544400">
<ele>334.170013</ele>
<time>2024-03-20T08:17:40.864Z</time>
</trkpt>
<trkpt lat="31.0200600" lon="35.2542200">
<ele>334.700012</ele>
<time>2024-03-20T08:17:40.864Z</time>
</trkpt>
<trkpt lat="31.0199200" lon="35.2539700">
<ele>337.290009</ele>
<time>2024-03-20T08:17:40.864Z</time>
</trkpt>
<trkpt lat="31.0191900" lon="35.2530800">
<ele>350.559998</ele>
<time>2024-03-20T08:17:40.864Z</time>
</trkpt>
<trkpt lat="31.0187900" lon="35.2526500">
<ele>352.700012</ele>
<time>2024-03-20T08:17:40.864Z</time>
</trkpt>
<trkpt lat="31.0185300" lon="35.2522800">
<ele>357.529999</ele>
<time>2024-03-20T08:17:40.864Z</time>
</trkpt>
<trkpt lat="31.0183400" lon="35.2519800">
<ele>353.480011</ele>
<time>2024-03-20T08:17:40.864Z</time>
</trkpt>
<trkpt lat="31.0183600" lon="35.2517600">
<ele>351.520020</ele>
<time>2024-03-20T08:17:40.864Z</time>
</trkpt>
<trkpt lat="31.0184700" lon="35.2516600">
<ele>352.910004</ele>
<time>2024-03-20T08:17:40.864Z</time>
</trkpt>
<trkpt lat="31.0186700" lon="35.2516200">
<ele>353.509979</ele>
<time>2024-03-20T08:17:40.864Z</time>
</trkpt>
<trkpt lat="31.0191500" lon="35.2517400">
<ele>352.700012</ele>
<time>2024-03-20T08:17:40.864Z</time>
</trkpt>
<trkpt lat="31.0194200" lon="35.2517400">
<ele>353.709991</ele>
<time>2024-03-20T08:17:40.864Z</time>
</trkpt>
<trkpt lat="31.0196200" lon="35.2516800">
<ele>357.420013</ele>
<time>2024-03-20T08:17:40.864Z</time>
</trkpt>
<trkpt lat="31.0197700" lon="35.2515400">
<ele>362.669983</ele>
<time>2024-03-20T08:17:40.864Z</time>
</trkpt>
<trkpt lat="31.0198600" lon="35.2513000">
<ele>366.949982</ele>
<time>2024-03-20T08:17:40.864Z</time>
</trkpt>
<trkpt lat="31.0199200" lon="35.2509900">
<ele>369.519989</ele>
<time>2024-03-20T08:17:40.864Z</time>
</trkpt>
<trkpt lat="31.0203700" lon="35.2478100">
<ele>386.150024</ele>
<time>2024-03-20T08:17:40.864Z</time>
</trkpt>
<trkpt lat="31.0205000" lon="35.2475600">
<ele>386.289978</ele>
<time>2024-03-20T08:17:40.864Z</time>
</trkpt>
<trkpt lat="31.0208600" lon="35.2472100">
<ele>383.059998</ele>
<time>2024-03-20T08:17:40.864Z</time>
</trkpt>
<trkpt lat="31.0212300" lon="35.2469600">
<ele>382.720001</ele>
<time>2024-03-20T08:17:40.864Z</time>
</trkpt>
<trkpt lat="31.0217100" lon="35.2466100">
<ele>391.230011</ele>
<time>2024-03-20T08:17:40.864Z</time>
</trkpt>
<trkpt lat="31.0221000" lon="35.2462600">
<ele>392.250000</ele>
<time>2024-03-20T08:17:40.864Z</time>
</trkpt>
<trkpt lat="31.0225600" lon="35.2457600">
<ele>393.750000</ele>
<time>2024-03-20T08:17:40.864Z</time>
</trkpt>
<trkpt lat="31.0230100" lon="35.2456900">
<ele>395.510010</ele>
<time>2024-03-20T08:17:40.864Z</time>
</trkpt>
<trkpt lat="31.0239100" lon="35.2446100">
<ele>395.490021</ele>
<time>2024-03-20T08:17:40.864Z</time>
</trkpt>
<trkpt lat="31.0248500" lon="35.2433800">
<ele>387.929993</ele>
<time>2024-03-20T08:17:40.864Z</time>
</trkpt>
<trkpt lat="31.0254500" lon="35.2430800">
<ele>382.690033</ele>
<time>2024-03-20T08:17:40.864Z</time>
</trkpt>
<trkpt lat="31.0273800" lon="35.2422700">
<ele>385.320007</ele>
<time>2024-03-20T08:17:40.864Z</time>
</trkpt>
<trkpt lat="31.0294800" lon="35.2412600">
<ele>382.850006</ele>
<time>2024-03-20T08:17:40.864Z</time>
</trkpt>
<trkpt lat="31.0304200" lon="35.2399900">
<ele>376.019989</ele>
<time>2024-03-20T08:17:40.864Z</time>
</trkpt>
<trkpt lat="31.0307900" lon="35.2397500">
<ele>377.110016</ele>
<time>2024-03-20T08:17:40.864Z</time>
</trkpt>
<trkpt lat="31.0311700" lon="35.2394500">
<ele>376.500000</ele>
<time>2024-03-20T08:17:40.864Z</time>
</trkpt>
<trkpt lat="31.0317000" lon="35.2390800">
<ele>377.279999</ele>
<time>2024-03-20T08:17:40.864Z</time>
</trkpt>
<trkpt lat="31.0325800" lon="35.2385400">
<ele>373.539978</ele>
<time>2024-03-20T08:17:40.864Z</time>
</trkpt>
<trkpt lat="31.0331100" lon="35.2381400">
<ele>373.109985</ele>
<time>2024-03-20T08:17:40.864Z</time>
</trkpt>
<trkpt lat="31.0334100" lon="35.2377500">
<ele>373.899994</ele>
<time>2024-03-20T08:17:40.864Z</time>
</trkpt>
<trkpt lat="31.0338200" lon="35.2370200">
<ele>376.610016</ele>
<time>2024-03-20T08:17:40.864Z</time>
</trkpt>
<trkpt lat="31.0339300" lon="35.2369200">
<ele>376.740021</ele>
<time>2024-03-20T08:17:40.864Z</time>
</trkpt>
<trkpt lat="31.0340300" lon="35.2368800">
<ele>376.619995</ele>
<time>2024-03-20T08:17:40.864Z</time>
</trkpt>
<trkpt lat="31.0341500" lon="35.2368700">
<ele>376.780029</ele>
<time>2024-03-20T08:17:40.864Z</time>
</trkpt>
<trkpt lat="31.0346700" lon="35.2369400">
<ele>371.619995</ele>
<time>2024-03-20T08:17:40.864Z</time>
</trkpt>
<trkpt lat="31.0350200" lon="35.2368600">
<ele>369.100006</ele>
<time>2024-03-20T08:17:40.864Z</time>
</trkpt>
<trkpt lat="31.0351400" lon="35.2368100">
<ele>369.519989</ele>
<time>2024-03-20T08:17:40.864Z</time>
</trkpt>
<trkpt lat="31.0358400" lon="35.2363200">
<ele>366.790009</ele>
<time>2024-03-20T08:17:40.864Z</time>
</trkpt>
<trkpt lat="31.0360700" lon="35.2362000">
<ele>367.440002</ele>
<time>2024-03-20T08:17:40.864Z</time>
</trkpt>
<trkpt lat="31.0364900" lon="35.2359800">
<ele>370.339996</ele>
<time>2024-03-20T08:17:40.864Z</time>
</trkpt>
<trkpt lat="31.0381200" lon="35.2352000">
<ele>365.869995</ele>
<time>2024-03-20T08:17:40.864Z</time>
</trkpt>
<trkpt lat="31.0385900" lon="35.2349200">
<ele>364.329987</ele>
<time>2024-03-20T08:17:40.864Z</time>
</trkpt>
<trkpt lat="31.0389700" lon="35.2346300">
<ele>364.369995</ele>
<time>2024-03-20T08:17:40.864Z</time>
</trkpt>
<trkpt lat="31.0392700" lon="35.2345200">
<ele>361.950012</ele>
<time>2024-03-20T08:17:40.864Z</time>
</trkpt>
<trkpt lat="31.0412900" lon="35.2340200">
<ele>357.239990</ele>
<time>2024-03-20T08:17:40.864Z</time>
</trkpt>
<trkpt lat="31.0418500" lon="35.2339300">
<ele>354.940002</ele>
<time>2024-03-20T08:17:40.864Z</time>
</trkpt>
<trkpt lat="31.0422200" lon="35.2339200">
<ele>356.559998</ele>
<time>2024-03-20T08:17:40.864Z</time>
</trkpt>
<trkpt lat="31.0428600" lon="35.2338700">
<ele>346.040009</ele>
<time>2024-03-20T08:17:40.864Z</time>
</trkpt>
<trkpt lat="31.0440300" lon="35.2337100">
<ele>353.179993</ele>
<time>2024-03-20T08:17:40.864Z</time>
</trkpt>
<trkpt lat="31.0442000" lon="35.2337200">
<ele>351.170013</ele>
<time>2024-03-20T08:17:40.864Z</time>
</trkpt>
<trkpt lat="31.0445600" lon="35.2338400">
<ele>352.410004</ele>
<time>2024-03-20T08:17:40.864Z</time>
</trkpt>
<trkpt lat="31.0449700" lon="35.2336700">
<ele>347.450012</ele>
<time>2024-03-20T08:17:40.864Z</time>
</trkpt>
<trkpt lat="31.0453600" lon="35.2335900">
<ele>344.330017</ele>
<time>2024-03-20T08:17:40.864Z</time>
</trkpt>
<trkpt lat="31.0455900" lon="35.2334800">
<ele>345.400024</ele>
<time>2024-03-20T08:17:40.864Z</time>
</trkpt>
<trkpt lat="31.0460700" lon="35.2331500">
<ele>350.230011</ele>
<time>2024-03-20T08:17:40.864Z</time>
</trkpt>
<trkpt lat="31.0469400" lon="35.2325900">
<ele>349.330017</ele>
<time>2024-03-20T08:17:40.864Z</time>
</trkpt>
<trkpt lat="31.0471000" lon="35.2324600">
<ele>350.410004</ele>
<time>2024-03-20T08:17:40.864Z</time>
</trkpt>
<trkpt lat="31.0473000" lon="35.2322300">
<ele>352.959991</ele>
<time>2024-03-20T08:17:40.864Z</time>
</trkpt>
<trkpt lat="31.0474200" lon="35.2321400">
<ele>353.679993</ele>
<time>2024-03-20T08:17:40.864Z</time>
</trkpt>
<trkpt lat="31.0476600" lon="35.2320200">
<ele>353.929993</ele>
<time>2024-03-20T08:17:40.864Z</time>
</trkpt>
<trkpt lat="31.0479900" lon="35.2319200">
<ele>353.850006</ele>
<time>2024-03-20T08:17:40.864Z</time>
</trkpt>
<trkpt lat="31.0481300" lon="35.2318400">
<ele>355.379974</ele>
<time>2024-03-20T08:17:40.864Z</time>
</trkpt>
<trkpt lat="31.0485400" lon="35.2315300">
<ele>359.109985</ele>
<time>2024-03-20T08:17:40.864Z</time>
</trkpt>
<trkpt lat="31.0486400" lon="35.2314900">
<ele>359.079987</ele>
<time>2024-03-20T08:17:40.864Z</time>
</trkpt>
<trkpt lat="31.0489400" lon="35.2314700">
<ele>354.489990</ele>
<time>2024-03-20T08:17:40.864Z</time>
</trkpt>
<trkpt lat="31.0491200" lon="35.2314800">
<ele>353.309998</ele>
<time>2024-03-20T08:17:40.864Z</time>
</trkpt>
<trkpt lat="31.0492800" lon="35.2315000">
<ele>352.989990</ele>
<time>2024-03-20T08:17:40.864Z</time>
</trkpt>
<trkpt lat="31.0496500" lon="35.2316200">
<ele>354.500000</ele>
<time>2024-03-20T08:17:40.864Z</time>
</trkpt>
<trkpt lat="31.0499100" lon="35.2316500">
<ele>354.760010</ele>
<time>2024-03-20T08:17:40.864Z</time>
</trkpt>
<trkpt lat="31.0503300" lon="35.2316200">
<ele>356.339996</ele>
<time>2024-03-20T08:17:40.864Z</time>
</trkpt>
<trkpt lat="31.0505500" lon="35.2315600">
<ele>359.899994</ele>
<time>2024-03-20T08:17:40.864Z</time>
</trkpt>
<trkpt lat="31.0509900" lon="35.2316300">
<ele>363.510010</ele>
<time>2024-03-20T08:17:40.864Z</time>
</trkpt>
<trkpt lat="31.0514500" lon="35.2319900">
<ele>361.049988</ele>
<time>2024-03-20T08:17:40.864Z</time>
</trkpt>
<trkpt lat="31.0520000" lon="35.2322100">
<ele>366.819977</ele>
<time>2024-03-20T08:17:40.864Z</time>
</trkpt>
<trkpt lat="31.0521100" lon="35.2328300">
<ele>371.349976</ele>
<time>2024-03-20T08:17:40.864Z</time>
</trkpt>
<trkpt lat="31.0521900" lon="35.2331300">
<ele>371.839996</ele>
<time>2024-03-20T08:17:40.864Z</time>
</trkpt>
<trkpt lat="31.0522100" lon="35.2332500">
<ele>372.549988</ele>
<time>2024-03-20T08:17:40.864Z</time>
</trkpt>
<trkpt lat="31.0522200" lon="35.2336900">
<ele>378.100006</ele>
<time>2024-03-20T08:17:40.864Z</time>
</trkpt>
<trkpt lat="31.0522200" lon="35.2338300">
<ele>380.110016</ele>
<time>2024-03-20T08:17:40.864Z</time>
</trkpt>
<trkpt lat="31.0521600" lon="35.2342500">
<ele>385.070007</ele>
<time>2024-03-20T08:17:40.864Z</time>
</trkpt>
<trkpt lat="31.0520100" lon="35.2347200">
<ele>388.450012</ele>
<time>2024-03-20T08:17:40.864Z</time>
</trkpt>
<trkpt lat="31.0520000" lon="35.2348100">
<ele>389.660004</ele>
<time>2024-03-20T08:17:40.864Z</time>
</trkpt>
<trkpt lat="31.0520200" lon="35.2349800">
<ele>392.260010</ele>
<time>2024-03-20T08:17:40.864Z</time>
</trkpt>
<trkpt lat="31.0520900" lon="35.2353200">
<ele>396.049988</ele>
<time>2024-03-20T08:17:40.864Z</time>
</trkpt>
<trkpt lat="31.0521500" lon="35.2358300">
<ele>397.690002</ele>
<time>2024-03-20T08:17:40.864Z</time>
</trkpt>
<trkpt lat="31.0520500" lon="35.2362200">
<ele>395.579987</ele>
<time>2024-03-20T08:17:40.864Z</time>
</trkpt>
<trkpt lat="31.0520400" lon="35.2364300">
<ele>396.099976</ele>
<time>2024-03-20T08:17:40.864Z</time>
</trkpt>
<trkpt lat="31.0519800" lon="35.2367700">
<ele>396.380005</ele>
<time>2024-03-20T08:17:40.864Z</time>
</trkpt>
<trkpt lat="31.0518800" lon="35.2373100">
<ele>397.859985</ele>
<time>2024-03-20T08:17:40.864Z</time>
</trkpt>
<trkpt lat="31.0518500" lon="35.2374900">
<ele>399.269989</ele>
<time>2024-03-20T08:17:40.864Z</time>
</trkpt>
<trkpt lat="31.0518500" lon="35.2377300">
<ele>402.649994</ele>
<time>2024-03-20T08:17:40.864Z</time>
</trkpt>
<trkpt lat="31.0518700" lon="35.2380200">
<ele>403.100006</ele>
<time>2024-03-20T08:17:40.864Z</time>
</trkpt>
<trkpt lat="31.0519600" lon="35.2385500">
<ele>400.260010</ele>
<time>2024-03-20T08:17:40.864Z</time>
</trkpt>
<trkpt lat="31.0519600" lon="35.2387600">
<ele>400.790009</ele>
<time>2024-03-20T08:17:40.864Z</time>
</trkpt>
<trkpt lat="31.0519300" lon="35.2390700">
<ele>400.970032</ele>
<time>2024-03-20T08:17:40.864Z</time>
</trkpt>
<trkpt lat="31.0519100" lon="35.2391800">
<ele>400.790009</ele>
<time>2024-03-20T08:17:40.864Z</time>
</trkpt>
<trkpt lat="31.0518400" lon="35.2392800">
<ele>400.110016</ele>
<time>2024-03-20T08:17:40.864Z</time>
</trkpt>
<trkpt lat="31.0516900" lon="35.2393800">
<ele>399.949982</ele>
<time>2024-03-20T08:17:40.864Z</time>
</trkpt>
<trkpt lat="31.0516200" lon="35.2394100">
<ele>400.649994</ele>
<time>2024-03-20T08:17:40.864Z</time>
</trkpt>
<trkpt lat="31.0515200" lon="35.2394200">
<ele>402.070007</ele>
<time>2024-03-20T08:17:40.864Z</time>
</trkpt>
<trkpt lat="31.0513400" lon="35.2393500">
<ele>404.540009</ele>
<time>2024-03-20T08:17:40.864Z</time>
</trkpt>
<trkpt lat="31.0511000" lon="35.2391500">
<ele>408.000000</ele>
<time>2024-03-20T08:17:40.864Z</time>
</trkpt>
<trkpt lat="31.0509400" lon="35.2390600">
<ele>408.000000</ele>
<time>2024-03-20T08:17:40.864Z</time>
</trkpt>
<trkpt lat="31.0508700" lon="35.2390400">
<ele>408.000000</ele>
<time>2024-03-20T08:17:40.864Z</time>
</trkpt>
<trkpt lat="31.0507900" lon="35.2390400">
<ele>407.929993</ele>
<time>2024-03-20T08:17:40.864Z</time>
</trkpt>
<trkpt lat="31.0507200" lon="35.2390800">
<ele>407.869995</ele>
<time>2024-03-20T08:17:40.864Z</time>
</trkpt>
<trkpt lat="31.0506500" lon="35.2391700">
<ele>408.000000</ele>
<time>2024-03-20T08:17:40.864Z</time>
</trkpt>
<trkpt lat="31.0506100" lon="35.2392400">
<ele>408.049988</ele>
<time>2024-03-20T08:17:40.864Z</time>
</trkpt>
<trkpt lat="31.0504700" lon="35.2397200">
<ele>409.669983</ele>
<time>2024-03-20T08:17:40.864Z</time>
</trkpt>
<trkpt lat="31.0504100" lon="35.2398300">
<ele>411.429993</ele>
<time>2024-03-20T08:17:40.864Z</time>
</trkpt>
<trkpt lat="31.0503200" lon="35.2399000">
<ele>412.799988</ele>
<time>2024-03-20T08:17:40.864Z</time>
</trkpt>
<trkpt lat="31.0500200" lon="35.2400600">
<ele>413.100006</ele>
<time>2024-03-20T08:17:40.864Z</time>
</trkpt>
<trkpt lat="31.0497300" lon="35.2401800">
<ele>412.990021</ele>
<time>2024-03-20T08:17:40.864Z</time>
</trkpt>
<trkpt lat="31.0496600" lon="35.2402300">
<ele>413.299988</ele>
<time>2024-03-20T08:17:40.864Z</time>
</trkpt>
<trkpt lat="31.0495500" lon="35.2404200">
<ele>415.109985</ele>
<time>2024-03-20T08:17:40.864Z</time>
</trkpt>
<trkpt lat="31.0492300" lon="35.2408300">
<ele>415.669983</ele>
<time>2024-03-20T08:17:40.864Z</time>
</trkpt>
<trkpt lat="31.0490200" lon="35.2411500">
<ele>417.510010</ele>
<time>2024-03-20T08:17:40.864Z</time>
</trkpt>
<trkpt lat="31.0489000" lon="35.2413000">
<ele>417.280029</ele>
<time>2024-03-20T08:17:40.864Z</time>
</trkpt>
<trkpt lat="31.0486900" lon="35.2415100">
<ele>414.260010</ele>
<time>2024-03-20T08:17:40.864Z</time>
</trkpt>
<trkpt lat="31.0485900" lon="35.2417000">
<ele>413.179993</ele>
<time>2024-03-20T08:17:40.864Z</time>
</trkpt>
<trkpt lat="31.0484300" lon="35.2419200">
<ele>412.650024</ele>
<time>2024-03-20T08:17:40.864Z</time>
</trkpt>
<trkpt lat="31.0483500" lon="35.2419700">
<ele>411.389984</ele>
<time>2024-03-20T08:17:40.864Z</time>
</trkpt>
<trkpt lat="31.0482800" lon="35.2419800">
<ele>411.250000</ele>
<time>2024-03-20T08:17:40.864Z</time>
</trkpt>
<trkpt lat="31.0479800" lon="35.2419100">
<ele>412.679993</ele>
<time>2024-03-20T08:17:40.864Z</time>
</trkpt>
<trkpt lat="31.0477000" lon="35.2418900">
<ele>413.619995</ele>
<time>2024-03-20T08:17:40.864Z</time>
</trkpt>
<trkpt lat="31.0474100" lon="35.2419000">
<ele>414.299988</ele>
<time>2024-03-20T08:17:40.864Z</time>
</trkpt>
<trkpt lat="31.0469200" lon="35.2420100">
<ele>416.779999</ele>
<time>2024-03-20T08:17:40.864Z</time>
</trkpt>
<trkpt lat="31.0469900" lon="35.2422700">
<ele>418.479980</ele>
<time>2024-03-20T08:17:40.864Z</time>
</trkpt>
<trkpt lat="31.0470500" lon="35.2424200">
<ele>419.529999</ele>
<time>2024-03-20T08:17:40.864Z</time>
</trkpt>
<trkpt lat="31.0470800" lon="35.2425400">
<ele>420.140015</ele>
<time>2024-03-20T08:17:40.864Z</time>
</trkpt>
<trkpt lat="31.0471400" lon="35.2426400">
<ele>420.500000</ele>
<time>2024-03-20T08:17:40.864Z</time>
</trkpt>
<trkpt lat="31.0471400" lon="35.2427900">
<ele>421.109985</ele>
<time>2024-03-20T08:17:40.864Z</time>
</trkpt>
<trkpt lat="31.0471100" lon="35.2429200">
<ele>422.119995</ele>
<time>2024-03-20T08:17:40.864Z</time>
</trkpt>
<trkpt lat="31.0470500" lon="35.2429800">
<ele>422.279999</ele>
<time>2024-03-20T08:17:40.864Z</time>
</trkpt>
<trkpt lat="31.0470000" lon="35.2432500">
<ele>424.779999</ele>
<time>2024-03-20T08:17:40.864Z</time>
</trkpt>
<trkpt lat="31.0469900" lon="35.2434300">
<ele>426.410004</ele>
<time>2024-03-20T08:17:40.864Z</time>
</trkpt>
<trkpt lat="31.0470000" lon="35.2438400">
<ele>429.449982</ele>
<time>2024-03-20T08:17:40.864Z</time>
</trkpt>
<trkpt lat="31.0469200" lon="35.2440500">
<ele>431.230011</ele>
<time>2024-03-20T08:17:40.864Z</time>
</trkpt>
<trkpt lat="31.0467300" lon="35.2443200">
<ele>433.719971</ele>
<time>2024-03-20T08:17:40.864Z</time>
</trkpt>
<trkpt lat="31.0467700" lon="35.2443500">
<ele>433.179993</ele>
<time>2024-03-20T08:17:40.864Z</time>
</trkpt>
<trkpt lat="31.0468600" lon="35.2443500">
<ele>431.889984</ele>
<time>2024-03-20T08:17:40.864Z</time>
</trkpt>
<trkpt lat="31.0468000" lon="35.2444100">
<ele>432.649994</ele>
<time>2024-03-20T08:17:40.864Z</time>
</trkpt>
<trkpt lat="31.0467500" lon="35.2444200">
<ele>433.489990</ele>
<time>2024-03-20T08:17:40.864Z</time>
</trkpt>
<trkpt lat="31.0467700" lon="35.2447700">
<ele>430.269989</ele>
<time>2024-03-20T08:17:40.864Z</time>
</trkpt>
<trkpt lat="31.0467700" lon="35.2447600">
<ele>430.380005</ele>
<time>2024-03-20T08:17:40.864Z</time>
</trkpt>
<trkpt lat="31.0467500" lon="35.2444200">
<ele>433.489990</ele>
<time>2024-03-20T08:17:40.864Z</time>
</trkpt>
<trkpt lat="31.0468000" lon="35.2444100">
<ele>432.649994</ele>
<time>2024-03-20T08:17:40.864Z</time>
</trkpt>
<trkpt lat="31.0468600" lon="35.2443500">
<ele>431.889984</ele>
<time>2024-03-20T08:17:40.864Z</time>
</trkpt>
<trkpt lat="31.0467700" lon="35.2443500">
<ele>433.179993</ele>
<time>2024-03-20T08:17:40.864Z</time>
</trkpt>
<trkpt lat="31.0467300" lon="35.2443200">
<ele>433.719971</ele>
<time>2024-03-20T08:17:40.864Z</time>
</trkpt>
<trkpt lat="31.0469200" lon="35.2440500">
<ele>431.230011</ele>
<time>2024-03-20T08:17:40.864Z</time>
</trkpt>
<trkpt lat="31.0470000" lon="35.2438400">
<ele>429.449982</ele>
<time>2024-03-20T08:17:40.864Z</time>
</trkpt>
<trkpt lat="31.0469900" lon="35.2434300">
<ele>426.410004</ele>
<time>2024-03-20T08:17:40.864Z</time>
</trkpt>
<trkpt lat="31.0470000" lon="35.2432500">
<ele>424.779999</ele>
<time>2024-03-20T08:17:40.864Z</time>
</trkpt>
<trkpt lat="31.0470500" lon="35.2429800">
<ele>422.279999</ele>
<time>2024-03-20T08:17:40.864Z</time>
</trkpt>
<trkpt lat="31.0471100" lon="35.2429200">
<ele>422.119995</ele>
<time>2024-03-20T08:17:40.864Z</time>
</trkpt>
<trkpt lat="31.0471400" lon="35.2427900">
<ele>421.109985</ele>
<time>2024-03-20T08:17:40.864Z</time>
</trkpt>
<trkpt lat="31.0471400" lon="35.2426400">
<ele>420.500000</ele>
<time>2024-03-20T08:17:40.864Z</time>
</trkpt>
<trkpt lat="31.0470800" lon="35.2425400">
<ele>420.140015</ele>
<time>2024-03-20T08:17:40.864Z</time>
</trkpt>
<trkpt lat="31.0470500" lon="35.2424200">
<ele>419.529999</ele>
<time>2024-03-20T08:17:40.864Z</time>
</trkpt>
<trkpt lat="31.0469900" lon="35.2422700">
<ele>418.479980</ele>
<time>2024-03-20T08:17:40.864Z</time>
</trkpt>
<trkpt lat="31.0469200" lon="35.2420100">
<ele>416.779999</ele>
<time>2024-03-20T08:17:40.864Z</time>
</trkpt>
<trkpt lat="31.0465700" lon="35.2420200">
<ele>420.279999</ele>
<time>2024-03-20T08:17:40.864Z</time>
</trkpt>
<trkpt lat="31.0462300" lon="35.2421100">
<ele>420.069977</ele>
<time>2024-03-20T08:17:40.864Z</time>
</trkpt>
<trkpt lat="31.0460400" lon="35.2421900">
<ele>417.889984</ele>
<time>2024-03-20T08:17:40.864Z</time>
</trkpt>
<trkpt lat="31.0459400" lon="35.2422500">
<ele>415.869995</ele>
<time>2024-03-20T08:17:40.864Z</time>
</trkpt>
<trkpt lat="31.0458500" lon="35.2423400">
<ele>414.620026</ele>
<time>2024-03-20T08:17:40.864Z</time>
</trkpt>
<trkpt lat="31.0457000" lon="35.2425600">
<ele>414.079987</ele>
<time>2024-03-20T08:17:40.864Z</time>
</trkpt>
<trkpt lat="31.0451800" lon="35.2431500">
<ele>410.609985</ele>
<time>2024-03-20T08:17:40.864Z</time>
</trkpt>
<trkpt lat="31.0451100" lon="35.2432800">
<ele>410.239990</ele>
<time>2024-03-20T08:17:40.864Z</time>
</trkpt>
<trkpt lat="31.0450400" lon="35.2435000">
<ele>411.260010</ele>
<time>2024-03-20T08:17:40.864Z</time>
</trkpt>
<trkpt lat="31.0450100" lon="35.2438500">
<ele>413.660004</ele>
<time>2024-03-20T08:17:40.864Z</time>
</trkpt>
<trkpt lat="31.0450100" lon="35.2443100">
<ele>408.000000</ele>
<time>2024-03-20T08:17:40.864Z</time>
</trkpt>
<trkpt lat="31.0449500" lon="35.2447200">
<ele>405.829987</ele>
<time>2024-03-20T08:17:40.864Z</time>
</trkpt>
<trkpt lat="31.0449500" lon="35.2450100">
<ele>404.679993</ele>
<time>2024-03-20T08:17:40.864Z</time>
</trkpt>
<trkpt lat="31.0450200" lon="35.2451500">
<ele>403.089996</ele>
<time>2024-03-20T08:17:40.864Z</time>
</trkpt>
<trkpt lat="31.0451600" lon="35.2453300">
<ele>402.359985</ele>
<time>2024-03-20T08:17:40.864Z</time>
</trkpt>
<trkpt lat="31.0452400" lon="35.2454900">
<ele>400.639984</ele>
<time>2024-03-20T08:17:40.864Z</time>
</trkpt>
<trkpt lat="31.0452800" lon="35.2456200">
<ele>399.369995</ele>
<time>2024-03-20T08:17:40.864Z</time>
</trkpt>
<trkpt lat="31.0453000" lon="35.2457700">
<ele>398.489990</ele>
<time>2024-03-20T08:17:40.864Z</time>
</trkpt>
<trkpt lat="31.0452800" lon="35.2459300">
<ele>397.079987</ele>
<time>2024-03-20T08:17:40.864Z</time>
</trkpt>
<trkpt lat="31.0450300" lon="35.2462700">
<ele>394.710022</ele>
<time>2024-03-20T08:17:40.864Z</time>
</trkpt>
<trkpt lat="31.0449600" lon="35.2463900">
<ele>394.849976</ele>
<time>2024-03-20T08:17:40.864Z</time>
</trkpt>
<trkpt lat="31.0449000" lon="35.2465200">
<ele>394.509979</ele>
<time>2024-03-20T08:17:40.864Z</time>
</trkpt>
<trkpt lat="31.0448700" lon="35.2466100">
<ele>394.480011</ele>
<time>2024-03-20T08:17:40.864Z</time>
</trkpt>
<trkpt lat="31.0448600" lon="35.2467400">
<ele>394.110016</ele>
<time>2024-03-20T08:17:40.864Z</time>
</trkpt>
<trkpt lat="31.0448500" lon="35.2471500">
<ele>389.979980</ele>
<time>2024-03-20T08:17:40.864Z</time>
</trkpt>
<trkpt lat="31.0450000" lon="35.2477800">
<ele>382.980011</ele>
<time>2024-03-20T08:17:40.864Z</time>
</trkpt>
<trkpt lat="31.0450200" lon="35.2481700">
<ele>378.809998</ele>
<time>2024-03-20T08:17:40.864Z</time>
</trkpt>
<trkpt lat="31.0451700" lon="35.2486100">
<ele>371.800018</ele>
<time>2024-03-20T08:17:40.864Z</time>
</trkpt>
<trkpt lat="31.0452500" lon="35.2487200">
<ele>368.809998</ele>
<time>2024-03-20T08:17:40.864Z</time>
</trkpt>
<trkpt lat="31.0453100" lon="35.2487700">
<ele>367.629974</ele>
<time>2024-03-20T08:17:40.864Z</time>
</trkpt>
<trkpt lat="31.0456200" lon="35.2489800">
<ele>364.669983</ele>
<time>2024-03-20T08:17:40.864Z</time>
</trkpt>
<trkpt lat="31.0456800" lon="35.2490000">
<ele>364.629974</ele>
<time>2024-03-20T08:17:40.864Z</time>
</trkpt>
<trkpt lat="31.0458500" lon="35.2490100">
<ele>365.050018</ele>
<time>2024-03-20T08:17:40.864Z</time>
</trkpt>
<trkpt lat="31.0459500" lon="35.2490800">
<ele>362.699982</ele>
<time>2024-03-20T08:17:40.864Z</time>
</trkpt>
<trkpt lat="31.0460100" lon="35.2491800">
<ele>360.200012</ele>
<time>2024-03-20T08:17:40.864Z</time>
</trkpt>
<trkpt lat="31.0460600" lon="35.2493400">
<ele>356.500000</ele>
<time>2024-03-20T08:17:40.864Z</time>
</trkpt>
<trkpt lat="31.0460700" lon="35.2494400">
<ele>354.529999</ele>
<time>2024-03-20T08:17:40.864Z</time>
</trkpt>
<trkpt lat="31.0460700" lon="35.2499100">
<ele>344.339996</ele>
<time>2024-03-20T08:17:40.864Z</time>
</trkpt>
<trkpt lat="31.0461200" lon="35.2503900">
<ele>334.489990</ele>
<time>2024-03-20T08:17:40.864Z</time>
</trkpt>
<trkpt lat="31.0461100" lon="35.2504900">
<ele>332.940002</ele>
<time>2024-03-20T08:17:40.864Z</time>
</trkpt>
<trkpt lat="31.0460700" lon="35.2506100">
<ele>331.149994</ele>
<time>2024-03-20T08:17:40.864Z</time>
</trkpt>
<trkpt lat="31.0459800" lon="35.2507100">
<ele>328.809998</ele>
<time>2024-03-20T08:17:40.864Z</time>
</trkpt>
<trkpt lat="31.0455300" lon="35.2511100">
<ele>327.819977</ele>
<time>2024-03-20T08:17:40.864Z</time>
</trkpt>
<trkpt lat="31.0453700" lon="35.2512000">
<ele>325.059998</ele>
<time>2024-03-20T08:17:40.864Z</time>
</trkpt>
<trkpt lat="31.0453000" lon="35.2512400">
<ele>323.839996</ele>
<time>2024-03-20T08:17:40.864Z</time>
</trkpt>
<trkpt lat="31.0450800" lon="35.2513200">
<ele>323.850006</ele>
<time>2024-03-20T08:17:40.864Z</time>
</trkpt>
<trkpt lat="31.0448300" lon="35.2513700">
<ele>323.400024</ele>
<time>2024-03-20T08:17:40.864Z</time>
</trkpt>
<trkpt lat="31.0446100" lon="35.2513700">
<ele>322.070007</ele>
<time>2024-03-20T08:17:40.864Z</time>
</trkpt>
<trkpt lat="31.0445300" lon="35.2515800">
<ele>320.929993</ele>
<time>2024-03-20T08:17:40.864Z</time>
</trkpt>
<trkpt lat="31.0444500" lon="35.2517000">
<ele>319.800018</ele>
<time>2024-03-20T08:17:40.864Z</time>
</trkpt>
<trkpt lat="31.0443800" lon="35.2517700">
<ele>318.239990</ele>
<time>2024-03-20T08:17:40.864Z</time>
</trkpt>
<trkpt lat="31.0441800" lon="35.2518900">
<ele>313.819977</ele>
<time>2024-03-20T08:17:40.864Z</time>
</trkpt>
<trkpt lat="31.0440800" lon="35.2520000">
<ele>314.350006</ele>
<time>2024-03-20T08:17:40.864Z</time>
</trkpt>
<trkpt lat="31.0440400" lon="35.2521000">
<ele>315.279999</ele>
<time>2024-03-20T08:17:40.864Z</time>
</trkpt>
<trkpt lat="31.0440300" lon="35.2522300">
<ele>316.039978</ele>
<time>2024-03-20T08:17:40.864Z</time>
</trkpt>
<trkpt lat="31.0441200" lon="35.2526600">
<ele>318.309998</ele>
<time>2024-03-20T08:17:40.864Z</time>
</trkpt>
<trkpt lat="31.0441300" lon="35.2527900">
<ele>318.660004</ele>
<time>2024-03-20T08:17:40.864Z</time>
</trkpt>
<trkpt lat="31.0440300" lon="35.2532600">
<ele>314.429993</ele>
<time>2024-03-20T08:17:40.864Z</time>
</trkpt>
<trkpt lat="31.0438000" lon="35.2538100">
<ele>310.050018</ele>
<time>2024-03-20T08:17:40.864Z</time>
</trkpt>
<trkpt lat="31.0437500" lon="35.2540100">
<ele>309.279999</ele>
<time>2024-03-20T08:17:40.864Z</time>
</trkpt>
<trkpt lat="31.0437600" lon="35.2543000">
<ele>309.000000</ele>
<time>2024-03-20T08:17:40.864Z</time>
</trkpt>
<trkpt lat="31.0438000" lon="35.2545300">
<ele>308.480011</ele>
<time>2024-03-20T08:17:40.864Z</time>
</trkpt>
<trkpt lat="31.0438600" lon="35.2546900">
<ele>307.320007</ele>
<time>2024-03-20T08:17:40.864Z</time>
</trkpt>
<trkpt lat="31.0440200" lon="35.2550700">
<ele>309.190002</ele>
<time>2024-03-20T08:17:40.864Z</time>
</trkpt>
<trkpt lat="31.0440400" lon="35.2551800">
<ele>308.869995</ele>
<time>2024-03-20T08:17:40.864Z</time>
</trkpt>
<trkpt lat="31.0440000" lon="35.2554600">
<ele>309.390015</ele>
<time>2024-03-20T08:17:40.864Z</time>
</trkpt>
<trkpt lat="31.0438800" lon="35.2558800">
<ele>311.339996</ele>
<time>2024-03-20T08:17:40.864Z</time>
</trkpt>
<trkpt lat="31.0437300" lon="35.2559200">
<ele>311.619995</ele>
<time>2024-03-20T08:17:40.864Z</time>
</trkpt>
<trkpt lat="31.0437300" lon="35.2559300">
<ele>311.700012</ele>
<time>2024-03-20T08:17:40.864Z</time>
</trkpt>
<trkpt lat="31.0436800" lon="35.2559400">
<ele>311.769989</ele>
<time>2024-03-20T08:17:40.864Z</time>
</trkpt>
<trkpt lat="31.0433600" lon="35.2559300">
<ele>309.570007</ele>
<time>2024-03-20T08:17:40.864Z</time>
</trkpt>
<trkpt lat="31.0432000" lon="35.2560100">
<ele>308.239990</ele>
<time>2024-03-20T08:17:40.864Z</time>
</trkpt>
<trkpt lat="31.0431100" lon="35.2561100">
<ele>306.790009</ele>
<time>2024-03-20T08:17:40.864Z</time>
</trkpt>
<trkpt lat="31.0429500" lon="35.2564400">
<ele>308.020020</ele>
<time>2024-03-20T08:17:40.864Z</time>
</trkpt>
<trkpt lat="31.0426900" lon="35.2572000">
<ele>310.779999</ele>
<time>2024-03-20T08:17:40.864Z</time>
</trkpt>
<trkpt lat="31.0422300" lon="35.2579100">
<ele>318.940002</ele>
<time>2024-03-20T08:17:40.864Z</time>
</trkpt>
<trkpt lat="31.0420900" lon="35.2580500">
<ele>318.990021</ele>
<time>2024-03-20T08:17:40.864Z</time>
</trkpt>
<trkpt lat="31.0412900" lon="35.2586100">
<ele>313.649994</ele>
<time>2024-03-20T08:17:40.864Z</time>
</trkpt>
<trkpt lat="31.0411700" lon="35.2587400">
<ele>312.310028</ele>
<time>2024-03-20T08:17:40.864Z</time>
</trkpt>
<trkpt lat="31.0409300" lon="35.2591300">
<ele>314.679993</ele>
<time>2024-03-20T08:17:40.864Z</time>
</trkpt>
<trkpt lat="31.0405900" lon="35.2593500">
<ele>315.459991</ele>
<time>2024-03-20T08:17:40.864Z</time>
</trkpt>
<trkpt lat="31.0404200" lon="35.2594200">
<ele>313.139984</ele>
<time>2024-03-20T08:17:40.864Z</time>
</trkpt>
<trkpt lat="31.0401800" lon="35.2596200">
<ele>312.260010</ele>
<time>2024-03-20T08:17:40.864Z</time>
</trkpt>
<trkpt lat="31.0400800" lon="35.2597500">
<ele>313.330017</ele>
<time>2024-03-20T08:17:40.864Z</time>
</trkpt>
<trkpt lat="31.0400200" lon="35.2599200">
<ele>315.190002</ele>
<time>2024-03-20T08:17:40.864Z</time>
</trkpt>
<trkpt lat="31.0400100" lon="35.2600800">
<ele>316.649994</ele>
<time>2024-03-20T08:17:40.864Z</time>
</trkpt>
<trkpt lat="31.0400600" lon="35.2602000">
<ele>318.279999</ele>
<time>2024-03-20T08:17:40.864Z</time>
</trkpt>
<trkpt lat="31.0401200" lon="35.2602400">
<ele>319.649994</ele>
<time>2024-03-20T08:17:40.864Z</time>
</trkpt>
<trkpt lat="31.0404600" lon="35.2603400">
<ele>327.690002</ele>
<time>2024-03-20T08:17:40.864Z</time>
</trkpt>
<trkpt lat="31.0408200" lon="35.2605200">
<ele>333.110016</ele>
<time>2024-03-20T08:17:40.864Z</time>
</trkpt>
<trkpt lat="31.0409100" lon="35.2605900">
<ele>333.700012</ele>
<time>2024-03-20T08:17:40.864Z</time>
</trkpt>
<trkpt lat="31.0409400" lon="35.2606900">
<ele>334.199982</ele>
<time>2024-03-20T08:17:40.864Z</time>
</trkpt>
<trkpt lat="31.0409600" lon="35.2616000">
<ele>339.710022</ele>
<time>2024-03-20T08:17:40.864Z</time>
</trkpt>
<trkpt lat="31.0409400" lon="35.2618000">
<ele>343.059998</ele>
<time>2024-03-20T08:17:40.864Z</time>
</trkpt>
<trkpt lat="31.0408600" lon="35.2619600">
<ele>344.540009</ele>
<time>2024-03-20T08:17:40.864Z</time>
</trkpt>
<trkpt lat="31.0404200" lon="35.2624200">
<ele>345.400024</ele>
<time>2024-03-20T08:17:40.864Z</time>
</trkpt>
<trkpt lat="31.0403000" lon="35.2626000">
<ele>345.510010</ele>
<time>2024-03-20T08:17:40.864Z</time>
</trkpt>
<trkpt lat="31.0402500" lon="35.2628100">
<ele>346.600006</ele>
<time>2024-03-20T08:17:40.864Z</time>
</trkpt>
<trkpt lat="31.0402600" lon="35.2630100">
<ele>347.459991</ele>
<time>2024-03-20T08:17:40.864Z</time>
</trkpt>
<trkpt lat="31.0403400" lon="35.2633300">
<ele>350.339996</ele>
<time>2024-03-20T08:17:40.864Z</time>
</trkpt>
<trkpt lat="31.0405300" lon="35.2635800">
<ele>352.839996</ele>
<time>2024-03-20T08:17:40.864Z</time>
</trkpt>
<trkpt lat="31.0406200" lon="35.2637500">
<ele>352.309998</ele>
<time>2024-03-20T08:17:40.864Z</time>
</trkpt>
<trkpt lat="31.0405500" lon="35.2643100">
<ele>347.470001</ele>
<time>2024-03-20T08:17:40.864Z</time>
</trkpt>
<trkpt lat="31.0406500" lon="35.2647000">
<ele>349.699982</ele>
<time>2024-03-20T08:17:40.864Z</time>
</trkpt>
<trkpt lat="31.0407600" lon="35.2649700">
<ele>349.239990</ele>
<time>2024-03-20T08:17:40.864Z</time>
</trkpt>
<trkpt lat="31.0410400" lon="35.2654500">
<ele>345.879974</ele>
<time>2024-03-20T08:17:40.864Z</time>
</trkpt>
<trkpt lat="31.0412900" lon="35.2658200">
<ele>345.919983</ele>
<time>2024-03-20T08:17:40.864Z</time>
</trkpt>
<trkpt lat="31.0413100" lon="35.2660000">
<ele>348.559998</ele>
<time>2024-03-20T08:17:40.864Z</time>
</trkpt>
<trkpt lat="31.0412600" lon="35.2661000">
<ele>348.250000</ele>
<time>2024-03-20T08:17:40.864Z</time>
</trkpt>
<trkpt lat="31.0412700" lon="35.2661000">
<ele>348.600006</ele>
<time>2024-03-20T08:17:40.864Z</time>
</trkpt>
<trkpt lat="31.0412500" lon="35.2661400">
<ele>348.359985</ele>
<time>2024-03-20T08:17:40.864Z</time>
</trkpt>
<trkpt lat="31.0408700" lon="35.2664800">
<ele>342.029999</ele>
<time>2024-03-20T08:17:40.864Z</time>
</trkpt>
<trkpt lat="31.0407700" lon="35.2666800">
<ele>341.750000</ele>
<time>2024-03-20T08:17:40.864Z</time>
</trkpt>
<trkpt lat="31.0407100" lon="35.2670800">
<ele>340.449982</ele>
<time>2024-03-20T08:17:40.864Z</time>
</trkpt>
<trkpt lat="31.0405600" lon="35.2673300">
<ele>337.679993</ele>
<time>2024-03-20T08:17:40.864Z</time>
</trkpt>
<trkpt lat="31.0405300" lon="35.2674400">
<ele>336.620026</ele>
<time>2024-03-20T08:17:40.864Z</time>
</trkpt>
<trkpt lat="31.0405000" lon="35.2681000">
<ele>337.950012</ele>
<time>2024-03-20T08:17:40.864Z</time>
</trkpt>
<trkpt lat="31.0403000" lon="35.2683600">
<ele>335.770020</ele>
<time>2024-03-20T08:17:40.864Z</time>
</trkpt>
<trkpt lat="31.0402300" lon="35.2686300">
<ele>336.849976</ele>
<time>2024-03-20T08:17:40.864Z</time>
</trkpt>
<trkpt lat="31.0401800" lon="35.2687000">
<ele>335.739990</ele>
<time>2024-03-20T08:17:40.864Z</time>
</trkpt>
<trkpt lat="31.0399700" lon="35.2688500">
<ele>330.660004</ele>
<time>2024-03-20T08:17:40.864Z</time>
</trkpt>
<trkpt lat="31.0398800" lon="35.2692000">
<ele>328.759979</ele>
<time>2024-03-20T08:17:40.864Z</time>
</trkpt>
<trkpt lat="31.0397200" lon="35.2695000">
<ele>329.160004</ele>
<time>2024-03-20T08:17:40.864Z</time>
</trkpt>
<trkpt lat="31.0392500" lon="35.2699000">
<ele>327.309998</ele>
<time>2024-03-20T08:17:40.864Z</time>
</trkpt>
<trkpt lat="31.0389200" lon="35.2704400">
<ele>324.649994</ele>
<time>2024-03-20T08:17:40.864Z</time>
</trkpt>
<trkpt lat="31.0388000" lon="35.2707900">
<ele>322.910004</ele>
<time>2024-03-20T08:17:40.864Z</time>
</trkpt>
<trkpt lat="31.0387600" lon="35.2710600">
<ele>319.590027</ele>
<time>2024-03-20T08:17:40.864Z</time>
</trkpt>
<trkpt lat="31.0387600" lon="35.2710600">
<ele>319.590027</ele>
<time>2024-03-20T08:17:40.864Z</time>
</trkpt>
<trkpt lat="31.0387700" lon="35.2710600">
<ele>319.450012</ele>
<time>2024-03-20T08:17:40.864Z</time>
</trkpt>
<trkpt lat="31.0386900" lon="35.2715200">
<ele>317.190002</ele>
<time>2024-03-20T08:17:40.864Z</time>
</trkpt>
<trkpt lat="31.0385500" lon="35.2715600">
<ele>317.970001</ele>
<time>2024-03-20T08:17:40.864Z</time>
</trkpt>
<trkpt lat="31.0384700" lon="35.2715600">
<ele>318.239990</ele>
<time>2024-03-20T08:17:40.864Z</time>
</trkpt>
<trkpt lat="31.0378900" lon="35.2714800">
<ele>319.989990</ele>
<time>2024-03-20T08:17:40.864Z</time>
</trkpt>
<trkpt lat="31.0378100" lon="35.2715300">
<ele>317.720001</ele>
<time>2024-03-20T08:17:40.864Z</time>
</trkpt>
<trkpt lat="31.0376700" lon="35.2717700">
<ele>311.579987</ele>
<time>2024-03-20T08:17:40.864Z</time>
</trkpt>
<trkpt lat="31.0376200" lon="35.2718200">
<ele>310.699982</ele>
<time>2024-03-20T08:17:40.864Z</time>
</trkpt>
<trkpt lat="31.0376200" lon="35.2718200">
<ele>310.699982</ele>
<time>2024-03-20T08:17:40.864Z</time>
</trkpt>
<trkpt lat="31.0376700" lon="35.2717700">
<ele>311.579987</ele>
<time>2024-03-20T08:17:40.864Z</time>
</trkpt>
<trkpt lat="31.0378100" lon="35.2715300">
<ele>317.720001</ele>
<time>2024-03-20T08:17:40.864Z</time>
</trkpt>
<trkpt lat="31.0378900" lon="35.2714800">
<ele>319.989990</ele>
<time>2024-03-20T08:17:40.864Z</time>
</trkpt>
<trkpt lat="31.0384700" lon="35.2715600">
<ele>318.239990</ele>
<time>2024-03-20T08:17:40.864Z</time>
</trkpt>
<trkpt lat="31.0385500" lon="35.2715600">
<ele>317.970001</ele>
<time>2024-03-20T08:17:40.864Z</time>
</trkpt>
<trkpt lat="31.0386900" lon="35.2715200">
<ele>317.190002</ele>
<time>2024-03-20T08:17:40.864Z</time>
</trkpt>
<trkpt lat="31.0389900" lon="35.2718300">
<ele>312.359985</ele>
<time>2024-03-20T08:17:40.864Z</time>
</trkpt>
<trkpt lat="31.0391200" lon="35.2721100">
<ele>309.479980</ele>
<time>2024-03-20T08:17:40.864Z</time>
</trkpt>
<trkpt lat="31.0391200" lon="35.2721100">
<ele>309.479980</ele>
<time>2024-03-20T08:17:40.864Z</time>
</trkpt>
<trkpt lat="31.0391200" lon="35.2721100">
<ele>309.479980</ele>
<time>2024-03-20T08:17:40.864Z</time>
</trkpt>
<trkpt lat="31.0393300" lon="35.2725400">
<ele>303.480011</ele>
<time>2024-03-20T08:17:40.864Z</time>
</trkpt>
<trkpt lat="31.0395400" lon="35.2735900">
<ele>291.809998</ele>
<time>2024-03-20T08:17:40.864Z</time>
</trkpt>
<trkpt lat="31.0395300" lon="35.2740500">
<ele>290.399994</ele>
<time>2024-03-20T08:17:40.864Z</time>
</trkpt>
<trkpt lat="31.0395900" lon="35.2746600">
<ele>287.980011</ele>
<time>2024-03-20T08:17:40.864Z</time>
</trkpt>
<trkpt lat="31.0393300" lon="35.2748600">
<ele>288.350006</ele>
<time>2024-03-20T08:17:40.864Z</time>
</trkpt>
<trkpt lat="31.0392100" lon="35.2750800">
<ele>287.799988</ele>
<time>2024-03-20T08:17:40.864Z</time>
</trkpt>
<trkpt lat="31.0389900" lon="35.2753300">
<ele>287.380005</ele>
<time>2024-03-20T08:17:40.864Z</time>
</trkpt>
<trkpt lat="31.0389300" lon="35.2756100">
<ele>289.970001</ele>
<time>2024-03-20T08:17:40.864Z</time>
</trkpt>
<trkpt lat="31.0387800" lon="35.2758500">
<ele>291.440002</ele>
<time>2024-03-20T08:17:40.864Z</time>
</trkpt>
<trkpt lat="31.0387700" lon="35.2759200">
<ele>291.940002</ele>
<time>2024-03-20T08:17:40.864Z</time>
</trkpt>
<trkpt lat="31.0388500" lon="35.2763000">
<ele>297.380005</ele>
<time>2024-03-20T08:17:40.864Z</time>
</trkpt>
<trkpt lat="31.0388500" lon="35.2764600">
<ele>298.790009</ele>
<time>2024-03-20T08:17:40.864Z</time>
</trkpt>
<trkpt lat="31.0387500" lon="35.2767200">
<ele>299.079987</ele>
<time>2024-03-20T08:17:40.864Z</time>
</trkpt>
<trkpt lat="31.0387200" lon="35.2768400">
<ele>300.019989</ele>
<time>2024-03-20T08:17:40.864Z</time>
</trkpt>
<trkpt lat="31.0387300" lon="35.2768400">
<ele>300.140015</ele>
<time>2024-03-20T08:17:40.864Z</time>
</trkpt>
<trkpt lat="31.0386600" lon="35.2770800">
<ele>300.519989</ele>
<time>2024-03-20T08:17:40.864Z</time>
</trkpt>
<trkpt lat="31.0384900" lon="35.2772500">
<ele>300.730011</ele>
<time>2024-03-20T08:17:40.864Z</time>
</trkpt>
<trkpt lat="31.0381500" lon="35.2775200">
<ele>301.760010</ele>
<time>2024-03-20T08:17:40.864Z</time>
</trkpt>
<trkpt lat="31.0377800" lon="35.2779300">
<ele>297.360016</ele>
<time>2024-03-20T08:17:40.864Z</time>
</trkpt>
<trkpt lat="31.0376600" lon="35.2780100">
<ele>296.279999</ele>
<time>2024-03-20T08:17:40.864Z</time>
</trkpt>
<trkpt lat="31.0375700" lon="35.2780300">
<ele>296.070007</ele>
<time>2024-03-20T08:17:40.864Z</time>
</trkpt>
<trkpt lat="31.0373400" lon="35.2780300">
<ele>294.220001</ele>
<time>2024-03-20T08:17:40.864Z</time>
</trkpt>
<trkpt lat="31.0372400" lon="35.2780000">
<ele>293.000000</ele>
<time>2024-03-20T08:17:40.864Z</time>
</trkpt>
<trkpt lat="31.0371100" lon="35.2779400">
<ele>292.040009</ele>
<time>2024-03-20T08:17:40.864Z</time>
</trkpt>
<trkpt lat="31.0370100" lon="35.2779300">
<ele>291.640015</ele>
<time>2024-03-20T08:17:40.864Z</time>
</trkpt>
<trkpt lat="31.0368900" lon="35.2779500">
<ele>291.290009</ele>
<time>2024-03-20T08:17:40.864Z</time>
</trkpt>
<trkpt lat="31.0368300" lon="35.2779800">
<ele>291.040009</ele>
<time>2024-03-20T08:17:40.864Z</time>
</trkpt>
<trkpt lat="31.0365300" lon="35.2776500">
<ele>291.640015</ele>
<time>2024-03-20T08:17:40.864Z</time>
</trkpt>
<trkpt lat="31.0368300" lon="35.2779800">
<ele>291.040009</ele>
<time>2024-03-20T08:17:40.864Z</time>
</trkpt>
<trkpt lat="31.0367900" lon="35.2780600">
<ele>289.929993</ele>
<time>2024-03-20T08:17:40.864Z</time>
</trkpt>
<trkpt lat="31.0367700" lon="35.2784800">
<ele>283.339996</ele>
<time>2024-03-20T08:17:40.864Z</time>
</trkpt>
<trkpt lat="31.0368000" lon="35.2785600">
<ele>282.600006</ele>
<time>2024-03-20T08:17:40.864Z</time>
</trkpt>
<trkpt lat="31.0368800" lon="35.2786100">
<ele>282.550018</ele>
<time>2024-03-20T08:17:40.864Z</time>
</trkpt>
<trkpt lat="31.0371600" lon="35.2785200">
<ele>284.570007</ele>
<time>2024-03-20T08:17:40.864Z</time>
</trkpt>
<trkpt lat="31.0372400" lon="35.2785100">
<ele>284.760010</ele>
<time>2024-03-20T08:17:40.864Z</time>
</trkpt>
<trkpt lat="31.0376600" lon="35.2786100">
<ele>281.609985</ele>
<time>2024-03-20T08:17:40.864Z</time>
</trkpt>
<trkpt lat="31.0377700" lon="35.2786500">
<ele>281.690002</ele>
<time>2024-03-20T08:17:40.864Z</time>
</trkpt>
<trkpt lat="31.0379600" lon="35.2787600">
<ele>281.489990</ele>
<time>2024-03-20T08:17:40.864Z</time>
</trkpt>
<trkpt lat="31.0380300" lon="35.2787800">
<ele>281.299988</ele>
<time>2024-03-20T08:17:40.864Z</time>
</trkpt>
<trkpt lat="31.0381000" lon="35.2787700">
<ele>281.570007</ele>
<time>2024-03-20T08:17:40.864Z</time>
</trkpt>
<trkpt lat="31.0381600" lon="35.2787000">
<ele>283.080017</ele>
<time>2024-03-20T08:17:40.864Z</time>
</trkpt>
<trkpt lat="31.0383000" lon="35.2784200">
<ele>287.309998</ele>
<time>2024-03-20T08:17:40.864Z</time>
</trkpt>
<trkpt lat="31.0383800" lon="35.2786200">
<ele>284.160004</ele>
<time>2024-03-20T08:17:40.864Z</time>
</trkpt>
<trkpt lat="31.0386200" lon="35.2790400">
<ele>276.920013</ele>
<time>2024-03-20T08:17:40.864Z</time>
</trkpt>
<trkpt lat="31.0386300" lon="35.2790900">
<ele>276.309998</ele>
<time>2024-03-20T08:17:40.864Z</time>
</trkpt>
<trkpt lat="31.0386300" lon="35.2790900">
<ele>276.309998</ele>
<time>2024-03-20T08:17:40.864Z</time>
</trkpt>
<trkpt lat="31.0387500" lon="35.2796500">
<ele>271.649994</ele>
<time>2024-03-20T08:17:40.864Z</time>
</trkpt>
<trkpt lat="31.0388700" lon="35.2799300">
<ele>268.809998</ele>
<time>2024-03-20T08:17:40.864Z</time>
</trkpt>
<trkpt lat="31.0391100" lon="35.2803800">
<ele>265.940002</ele>
<time>2024-03-20T08:17:40.864Z</time>
</trkpt>
<trkpt lat="31.0390700" lon="35.2808000">
<ele>267.330017</ele>
<time>2024-03-20T08:17:40.864Z</time>
</trkpt>
<trkpt lat="31.0390800" lon="35.2811400">
<ele>268.399994</ele>
<time>2024-03-20T08:17:40.864Z</time>
</trkpt>
<trkpt lat="31.0392900" lon="35.2817300">
<ele>265.570007</ele>
<time>2024-03-20T08:17:40.864Z</time>
</trkpt>
<trkpt lat="31.0393300" lon="35.2820300">
<ele>259.220001</ele>
<time>2024-03-20T08:17:40.864Z</time>
</trkpt>
<trkpt lat="31.0393300" lon="35.2822700">
<ele>257.130005</ele>
<time>2024-03-20T08:17:40.864Z</time>
</trkpt>
<trkpt lat="31.0392200" lon="35.2828100">
<ele>257.250000</ele>
<time>2024-03-20T08:17:40.864Z</time>
</trkpt>
<trkpt lat="31.0391100" lon="35.2831400">
<ele>256.290009</ele>
<time>2024-03-20T08:17:40.864Z</time>
</trkpt>
<trkpt lat="31.0390800" lon="35.2834300">
<ele>255.900009</ele>
<time>2024-03-20T08:17:40.864Z</time>
</trkpt>
<trkpt lat="31.0390400" lon="35.2836100">
<ele>255.629990</ele>
<time>2024-03-20T08:17:40.864Z</time>
</trkpt>
<trkpt lat="31.0388600" lon="35.2839200">
<ele>251.139999</ele>
<time>2024-03-20T08:17:40.864Z</time>
</trkpt>
<trkpt lat="31.0384700" lon="35.2843900">
<ele>231.900009</ele>
<time>2024-03-20T08:17:40.864Z</time>
</trkpt>
<trkpt lat="31.0383400" lon="35.2848100">
<ele>227.900009</ele>
<time>2024-03-20T08:17:40.864Z</time>
</trkpt>
<trkpt lat="31.0383400" lon="35.2849200">
<ele>227.479996</ele>
<time>2024-03-20T08:17:40.864Z</time>
</trkpt>
<trkpt lat="31.0383700" lon="35.2850400">
<ele>227.430008</ele>
<time>2024-03-20T08:17:40.864Z</time>
</trkpt>
<trkpt lat="31.0386400" lon="35.2851700">
<ele>231.179993</ele>
<time>2024-03-20T08:17:40.864Z</time>
</trkpt>
<trkpt lat="31.0388200" lon="35.2852900">
<ele>234.710007</ele>
<time>2024-03-20T08:17:40.864Z</time>
</trkpt>
<trkpt lat="31.0388300" lon="35.2853700">
<ele>234.689987</ele>
<time>2024-03-20T08:17:40.864Z</time>
</trkpt>
<trkpt lat="31.0386800" lon="35.2855200">
<ele>228.699997</ele>
<time>2024-03-20T08:17:40.864Z</time>
</trkpt>
<trkpt lat="31.0379900" lon="35.2860000">
<ele>212.239990</ele>
<time>2024-03-20T08:17:40.864Z</time>
</trkpt>
<trkpt lat="31.0378400" lon="35.2861500">
<ele>208.139999</ele>
<time>2024-03-20T08:17:40.864Z</time>
</trkpt>
<trkpt lat="31.0377000" lon="35.2864500">
<ele>200.970001</ele>
<time>2024-03-20T08:17:40.864Z</time>
</trkpt>
<trkpt lat="31.0372500" lon="35.2871700">
<ele>188.869995</ele>
<time>2024-03-20T08:17:40.864Z</time>
</trkpt>
<trkpt lat="31.0370400" lon="35.2875900">
<ele>179.309998</ele>
<time>2024-03-20T08:17:40.864Z</time>
</trkpt>
<trkpt lat="31.0370400" lon="35.2878900">
<ele>175.540009</ele>
<time>2024-03-20T08:17:40.864Z</time>
</trkpt>
<trkpt lat="31.0370800" lon="35.2880400">
<ele>173.709991</ele>
<time>2024-03-20T08:17:40.864Z</time>
</trkpt>
<trkpt lat="31.0372900" lon="35.2884300">
<ele>165.839996</ele>
<time>2024-03-20T08:17:40.864Z</time>
</trkpt>
<trkpt lat="31.0373600" lon="35.2886800">
<ele>161.760010</ele>
<time>2024-03-20T08:17:40.864Z</time>
</trkpt>
<trkpt lat="31.0373700" lon="35.2888500">
<ele>159.830002</ele>
<time>2024-03-20T08:17:40.864Z</time>
</trkpt>
<trkpt lat="31.0373400" lon="35.2894500">
<ele>154.419998</ele>
<time>2024-03-20T08:17:40.864Z</time>
</trkpt>
<trkpt lat="31.0372700" lon="35.2897400">
<ele>154.180008</ele>
<time>2024-03-20T08:17:40.864Z</time>
</trkpt>
<trkpt lat="31.0372100" lon="35.2897800">
<ele>155.319992</ele>
<time>2024-03-20T08:17:40.864Z</time>
</trkpt>
<trkpt lat="31.0371500" lon="35.2897700">
<ele>155.860001</ele>
<time>2024-03-20T08:17:40.864Z</time>
</trkpt>
<trkpt lat="31.0371200" lon="35.2897100">
<ele>156.210007</ele>
<time>2024-03-20T08:17:40.864Z</time>
</trkpt>
<trkpt lat="31.0370900" lon="35.2894600">
<ele>158.769989</ele>
<time>2024-03-20T08:17:40.864Z</time>
</trkpt>
<trkpt lat="31.0369400" lon="35.2892900">
<ele>162.669998</ele>
<time>2024-03-20T08:17:40.864Z</time>
</trkpt>
<trkpt lat="31.0367600" lon="35.2892000">
<ele>164.140015</ele>
<time>2024-03-20T08:17:40.864Z</time>
</trkpt>
<trkpt lat="31.0366900" lon="35.2892400">
<ele>163.639999</ele>
<time>2024-03-20T08:17:40.864Z</time>
</trkpt>
<trkpt lat="31.0366400" lon="35.2893100">
<ele>162.080002</ele>
<time>2024-03-20T08:17:40.864Z</time>
</trkpt>
<trkpt lat="31.0366200" lon="35.2894700">
<ele>158.709991</ele>
<time>2024-03-20T08:17:40.864Z</time>
</trkpt>
<trkpt lat="31.0366300" lon="35.2899900">
<ele>150.940002</ele>
<time>2024-03-20T08:17:40.864Z</time>
</trkpt>
<trkpt lat="31.0365800" lon="35.2900800">
<ele>151.260010</ele>
<time>2024-03-20T08:17:40.864Z</time>
</trkpt>
<trkpt lat="31.0363300" lon="35.2902400">
<ele>150.910004</ele>
<time>2024-03-20T08:17:40.864Z</time>
</trkpt>
<trkpt lat="31.0362500" lon="35.2903600">
<ele>151.039993</ele>
<time>2024-03-20T08:17:40.864Z</time>
</trkpt>
<trkpt lat="31.0361900" lon="35.2905000">
<ele>151.759995</ele>
<time>2024-03-20T08:17:40.864Z</time>
</trkpt>
<trkpt lat="31.0361500" lon="35.2908200">
<ele>152.790009</ele>
<time>2024-03-20T08:17:40.864Z</time>
</trkpt>
<trkpt lat="31.0360800" lon="35.2910100">
<ele>149.830002</ele>
<time>2024-03-20T08:17:40.864Z</time>
</trkpt>
<trkpt lat="31.0358700" lon="35.2911900">
<ele>143.019989</ele>
<time>2024-03-20T08:17:40.864Z</time>
</trkpt>
<trkpt lat="31.0356100" lon="35.2914800">
<ele>138.779999</ele>
<time>2024-03-20T08:17:40.864Z</time>
</trkpt>
<trkpt lat="31.0354300" lon="35.2915400">
<ele>136.190002</ele>
<time>2024-03-20T08:17:40.864Z</time>
</trkpt>
<trkpt lat="31.0350300" lon="35.2915200">
<ele>130.479996</ele>
<time>2024-03-20T08:17:40.864Z</time>
</trkpt>
<trkpt lat="31.0345000" lon="35.2912700">
<ele>135.260010</ele>
<time>2024-03-20T08:17:40.864Z</time>
</trkpt>
<trkpt lat="31.0344200" lon="35.2912500">
<ele>135.910004</ele>
<time>2024-03-20T08:17:40.864Z</time>
</trkpt>
<trkpt lat="31.0343500" lon="35.2913000">
<ele>135.300003</ele>
<time>2024-03-20T08:17:40.864Z</time>
</trkpt>
<trkpt lat="31.0343500" lon="35.2913900">
<ele>134.629990</ele>
<time>2024-03-20T08:17:40.864Z</time>
</trkpt>
<trkpt lat="31.0344000" lon="35.2914400">
<ele>133.709991</ele>
<time>2024-03-20T08:17:40.864Z</time>
</trkpt>
<trkpt lat="31.0345400" lon="35.2914800">
<ele>132.229996</ele>
<time>2024-03-20T08:17:40.864Z</time>
</trkpt>
<trkpt lat="31.0346300" lon="35.2916000">
<ele>129.449997</ele>
<time>2024-03-20T08:17:40.864Z</time>
</trkpt>
<trkpt lat="31.0346900" lon="35.2918700">
<ele>123.470001</ele>
<time>2024-03-20T08:17:40.864Z</time>
</trkpt>
<trkpt lat="31.0347400" lon="35.2919600">
<ele>121.900002</ele>
<time>2024-03-20T08:17:40.864Z</time>
</trkpt>
<trkpt lat="31.0348700" lon="35.2920600">
<ele>121.400002</ele>
<time>2024-03-20T08:17:40.864Z</time>
</trkpt>
<trkpt lat="31.0348700" lon="35.2921300">
<ele>120.389999</ele>
<time>2024-03-20T08:17:40.864Z</time>
</trkpt>
<trkpt lat="31.0346900" lon="35.2923500">
<ele>117.650002</ele>
<time>2024-03-20T08:17:40.864Z</time>
</trkpt>
<trkpt lat="31.0344600" lon="35.2925100">
<ele>115.200005</ele>
<time>2024-03-20T08:17:40.864Z</time>
</trkpt>
<trkpt lat="31.0342800" lon="35.2927200">
<ele>112.959999</ele>
<time>2024-03-20T08:17:40.864Z</time>
</trkpt>
<trkpt lat="31.0341700" lon="35.2929600">
<ele>113.030006</ele>
<time>2024-03-20T08:17:40.864Z</time>
</trkpt>
<trkpt lat="31.0340400" lon="35.2934100">
<ele>113.110001</ele>
<time>2024-03-20T08:17:40.864Z</time>
</trkpt>
<trkpt lat="31.0339400" lon="35.2935600">
<ele>110.949997</ele>
<time>2024-03-20T08:17:40.864Z</time>
</trkpt>
<trkpt lat="31.0331600" lon="35.2942700">
<ele>95.180008</ele>
<time>2024-03-20T08:17:40.864Z</time>
</trkpt>
<trkpt lat="31.0329300" lon="35.2947300">
<ele>89.570000</ele>
<time>2024-03-20T08:17:40.864Z</time>
</trkpt>
<trkpt lat="31.0329100" lon="35.2948900">
<ele>87.930000</ele>
<time>2024-03-20T08:17:40.864Z</time>
</trkpt>
<trkpt lat="31.0326100" lon="35.2959900">
<ele>81.289993</ele>
<time>2024-03-20T08:17:40.864Z</time>
</trkpt>
<trkpt lat="31.0324400" lon="35.2962500">
<ele>82.930000</ele>
<time>2024-03-20T08:17:40.864Z</time>
</trkpt>
<trkpt lat="31.0322400" lon="35.2963500">
<ele>84.060005</ele>
<time>2024-03-20T08:17:40.864Z</time>
</trkpt>
<trkpt lat="31.0321100" lon="35.2964600">
<ele>82.230003</ele>
<time>2024-03-20T08:17:40.864Z</time>
</trkpt>
<trkpt lat="31.0318700" lon="35.2968200">
<ele>77.700005</ele>
<time>2024-03-20T08:17:40.864Z</time>
</trkpt>
<trkpt lat="31.0317700" lon="35.2969300">
<ele>75.560005</ele>
<time>2024-03-20T08:17:40.864Z</time>
</trkpt>
<trkpt lat="31.0312800" lon="35.2972700">
<ele>69.500000</ele>
<time>2024-03-20T08:17:40.864Z</time>
</trkpt>
<trkpt lat="31.0302600" lon="35.2977100">
<ele>71.779999</ele>
<time>2024-03-20T08:17:40.864Z</time>
</trkpt>
<trkpt lat="31.0301800" lon="35.2978000">
<ele>70.919998</ele>
<time>2024-03-20T08:17:40.864Z</time>
</trkpt>
<trkpt lat="31.0300200" lon="35.2978200">
<ele>70.580002</ele>
<time>2024-03-20T08:17:40.864Z</time>
</trkpt>
<trkpt lat="31.0299600" lon="35.2978600">
<ele>70.500000</ele>
<time>2024-03-20T08:17:40.864Z</time>
</trkpt>
<trkpt lat="31.0298700" lon="35.2980100">
<ele>69.500000</ele>
<time>2024-03-20T08:17:40.864Z</time>
</trkpt>
<trkpt lat="31.0295400" lon="35.2983000">
<ele>74.510002</ele>
<time>2024-03-20T08:17:40.864Z</time>
</trkpt>
<trkpt lat="31.0290300" lon="35.2986000">
<ele>78.489998</ele>
<time>2024-03-20T08:17:40.864Z</time>
</trkpt>
<trkpt lat="31.0287200" lon="35.2989600">
<ele>77.639999</ele>
<time>2024-03-20T08:17:40.864Z</time>
</trkpt>
<trkpt lat="31.0286600" lon="35.2991700">
<ele>77.540001</ele>
<time>2024-03-20T08:17:40.864Z</time>
</trkpt>
<trkpt lat="31.0284200" lon="35.2994000">
<ele>79.970001</ele>
<time>2024-03-20T08:17:40.864Z</time>
</trkpt>
<trkpt lat="31.0282100" lon="35.2993500">
<ele>82.690002</ele>
<time>2024-03-20T08:17:40.864Z</time>
</trkpt>
<trkpt lat="31.0279000" lon="35.2995400">
<ele>78.659996</ele>
<time>2024-03-20T08:17:40.864Z</time>
</trkpt>
<trkpt lat="31.0274700" lon="35.2996500">
<ele>74.099998</ele>
<time>2024-03-20T08:17:40.864Z</time>
</trkpt>
<trkpt lat="31.0273300" lon="35.2996300">
<ele>73.309998</ele>
<time>2024-03-20T08:17:40.864Z</time>
</trkpt>
<trkpt lat="31.0271700" lon="35.2995200">
<ele>72.050003</ele>
<time>2024-03-20T08:17:40.864Z</time>
</trkpt>
<trkpt lat="31.0271100" lon="35.2995100">
<ele>71.709999</ele>
<time>2024-03-20T08:17:40.864Z</time>
</trkpt>
<trkpt lat="31.0269800" lon="35.2995600">
<ele>71.760002</ele>
<time>2024-03-20T08:17:40.864Z</time>
</trkpt>
<trkpt lat="31.0263200" lon="35.3004900">
<ele>74.909996</ele>
<time>2024-03-20T08:17:40.864Z</time>
</trkpt>
<trkpt lat="31.0258900" lon="35.3007400">
<ele>69.360001</ele>
<time>2024-03-20T08:17:40.864Z</time>
</trkpt>
<trkpt lat="31.0256300" lon="35.3009900">
<ele>63.939999</ele>
<time>2024-03-20T08:17:40.864Z</time>
</trkpt>
<trkpt lat="31.0254100" lon="35.3010900">
<ele>63.240002</ele>
<time>2024-03-20T08:17:40.864Z</time>
</trkpt>
<trkpt lat="31.0250400" lon="35.3013200">
<ele>64.529999</ele>
<time>2024-03-20T08:17:40.864Z</time>
</trkpt>
<trkpt lat="31.0248500" lon="35.3013800">
<ele>65.110001</ele>
<time>2024-03-20T08:17:40.864Z</time>
</trkpt>
<trkpt lat="31.0246100" lon="35.3013700">
<ele>66.730003</ele>
<time>2024-03-20T08:17:40.864Z</time>
</trkpt>
<trkpt lat="31.0245100" lon="35.3013900">
<ele>67.519997</ele>
<time>2024-03-20T08:17:40.864Z</time>
</trkpt>
<trkpt lat="31.0242500" lon="35.3017500">
<ele>64.089996</ele>
<time>2024-03-20T08:17:40.864Z</time>
</trkpt>
<trkpt lat="31.0241900" lon="35.3019000">
<ele>62.560001</ele>
<time>2024-03-20T08:17:40.864Z</time>
</trkpt>
<trkpt lat="31.0239900" lon="35.3020500">
<ele>57.919998</ele>
<time>2024-03-20T08:17:40.864Z</time>
</trkpt>
<trkpt lat="31.0239100" lon="35.3022200">
<ele>55.320000</ele>
<time>2024-03-20T08:17:40.864Z</time>
</trkpt>
<trkpt lat="31.0239200" lon="35.3030700">
<ele>50.929996</ele>
<time>2024-03-20T08:17:40.864Z</time>
</trkpt>
<trkpt lat="31.0238900" lon="35.3033600">
<ele>46.470001</ele>
<time>2024-03-20T08:17:40.864Z</time>
</trkpt>
<trkpt lat="31.0237000" lon="35.3038900">
<ele>45.480000</ele>
<time>2024-03-20T08:17:40.864Z</time>
</trkpt>
<trkpt lat="31.0236400" lon="35.3041700">
<ele>48.810001</ele>
<time>2024-03-20T08:17:40.864Z</time>
</trkpt>
<trkpt lat="31.0236900" lon="35.3046500">
<ele>51.369999</ele>
<time>2024-03-20T08:17:40.864Z</time>
</trkpt>
<trkpt lat="31.0236700" lon="35.3047700">
<ele>52.739998</ele>
<time>2024-03-20T08:17:40.864Z</time>
</trkpt>
<trkpt lat="31.0234700" lon="35.3050800">
<ele>60.340000</ele>
<time>2024-03-20T08:17:40.864Z</time>
</trkpt>
<trkpt lat="31.0234100" lon="35.3052600">
<ele>64.349998</ele>
<time>2024-03-20T08:17:40.864Z</time>
</trkpt>
<trkpt lat="31.0234200" lon="35.3053700">
<ele>66.200005</ele>
<time>2024-03-20T08:17:40.864Z</time>
</trkpt>
<trkpt lat="31.0235600" lon="35.3056000">
<ele>67.870003</ele>
<time>2024-03-20T08:17:40.864Z</time>
</trkpt>
<trkpt lat="31.0234900" lon="35.3057400">
<ele>69.120003</ele>
<time>2024-03-20T08:17:40.864Z</time>
</trkpt>
<trkpt lat="31.0234300" lon="35.3060300">
<ele>67.589996</ele>
<time>2024-03-20T08:17:40.864Z</time>
</trkpt>
<trkpt lat="31.0233300" lon="35.3062200">
<ele>66.800003</ele>
<time>2024-03-20T08:17:40.864Z</time>
</trkpt>
<trkpt lat="31.0234000" lon="35.3065100">
<ele>63.230000</ele>
<time>2024-03-20T08:17:40.864Z</time>
</trkpt>
<trkpt lat="31.0233700" lon="35.3070500">
<ele>63.900002</ele>
<time>2024-03-20T08:17:40.864Z</time>
</trkpt>
<trkpt lat="31.0233400" lon="35.3072400">
<ele>64.989998</ele>
<time>2024-03-20T08:17:40.864Z</time>
</trkpt>
<trkpt lat="31.0233000" lon="35.3072900">
<ele>64.520004</ele>
<time>2024-03-20T08:17:40.864Z</time>
</trkpt>
<trkpt lat="31.0233600" lon="35.3075100">
<ele>65.610001</ele>
<time>2024-03-20T08:17:40.864Z</time>
</trkpt>
<trkpt lat="31.0233000" lon="35.3076400">
<ele>65.279999</ele>
<time>2024-03-20T08:17:40.864Z</time>
</trkpt>
<trkpt lat="31.0230800" lon="35.3078400">
<ele>60.040001</ele>
<time>2024-03-20T08:17:40.864Z</time>
</trkpt>
<trkpt lat="31.0229300" lon="35.3080000">
<ele>54.779999</ele>
<time>2024-03-20T08:17:40.864Z</time>
</trkpt>
<trkpt lat="31.0225800" lon="35.3085100">
<ele>47.130001</ele>
<time>2024-03-20T08:17:40.864Z</time>
</trkpt>
<trkpt lat="31.0225600" lon="35.3086400">
<ele>47.130001</ele>
<time>2024-03-20T08:17:40.864Z</time>
</trkpt>
<trkpt lat="31.0226200" lon="35.3088500">
<ele>46.939999</ele>
<time>2024-03-20T08:17:40.864Z</time>
</trkpt>
<trkpt lat="31.0226600" lon="35.3093500">
<ele>46.059998</ele>
<time>2024-03-20T08:17:40.864Z</time>
</trkpt>
<trkpt lat="31.0224700" lon="35.3094800">
<ele>43.270000</ele>
<time>2024-03-20T08:17:40.864Z</time>
</trkpt>
<trkpt lat="31.0224100" lon="35.3095600">
<ele>43.699997</ele>
<time>2024-03-20T08:17:40.864Z</time>
</trkpt>
<trkpt lat="31.0220500" lon="35.3102400">
<ele>38.779999</ele>
<time>2024-03-20T08:17:40.864Z</time>
</trkpt>
<trkpt lat="31.0213000" lon="35.3111800">
<ele>30.920002</ele>
<time>2024-03-20T08:17:40.864Z</time>
</trkpt>
<trkpt lat="31.0210700" lon="35.3113700">
<ele>29.039999</ele>
<time>2024-03-20T08:17:40.864Z</time>
</trkpt>
<trkpt lat="31.0209000" lon="35.3114300">
<ele>27.460001</ele>
<time>2024-03-20T08:17:40.864Z</time>
</trkpt>
<trkpt lat="31.0207400" lon="35.3114300">
<ele>26.730001</ele>
<time>2024-03-20T08:17:40.864Z</time>
</trkpt>
<trkpt lat="31.0209000" lon="35.3114300">
<ele>27.460001</ele>
<time>2024-03-20T08:17:40.864Z</time>
</trkpt>
<trkpt lat="31.0210700" lon="35.3113700">
<ele>29.039999</ele>
<time>2024-03-20T08:17:40.864Z</time>
</trkpt>
<trkpt lat="31.0213000" lon="35.3111800">
<ele>30.920002</ele>
<time>2024-03-20T08:17:40.864Z</time>
</trkpt>
<trkpt lat="31.0220500" lon="35.3102400">
<ele>38.779999</ele>
<time>2024-03-20T08:17:40.864Z</time>
</trkpt>
<trkpt lat="31.0224100" lon="35.3095600">
<ele>43.699997</ele>
<time>2024-03-20T08:17:40.864Z</time>
</trkpt>
<trkpt lat="31.0224700" lon="35.3094800">
<ele>43.270000</ele>
<time>2024-03-20T08:17:40.864Z</time>
</trkpt>
<trkpt lat="31.0226600" lon="35.3093500">
<ele>46.059998</ele>
<time>2024-03-20T08:17:40.864Z</time>
</trkpt>
<trkpt lat="31.0226200" lon="35.3088500">
<ele>46.939999</ele>
<time>2024-03-20T08:17:40.864Z</time>
</trkpt>
<trkpt lat="31.0225600" lon="35.3086400">
<ele>47.130001</ele>
<time>2024-03-20T08:17:40.864Z</time>
</trkpt>
<trkpt lat="31.0225800" lon="35.3085100">
<ele>47.130001</ele>
<time>2024-03-20T08:17:40.864Z</time>
</trkpt>
<trkpt lat="31.0229300" lon="35.3080000">
<ele>54.779999</ele>
<time>2024-03-20T08:17:40.864Z</time>
</trkpt>
<trkpt lat="31.0230800" lon="35.3078400">
<ele>60.040001</ele>
<time>2024-03-20T08:17:40.864Z</time>
</trkpt>
<trkpt lat="31.0228600" lon="35.3077300">
<ele>54.250000</ele>
<time>2024-03-20T08:17:40.864Z</time>
</trkpt>
<trkpt lat="31.0227100" lon="35.3076000">
<ele>50.699997</ele>
<time>2024-03-20T08:17:40.864Z</time>
</trkpt>
<trkpt lat="31.0223700" lon="35.3070900">
<ele>45.610001</ele>
<time>2024-03-20T08:17:40.864Z</time>
</trkpt>
<trkpt lat="31.0221900" lon="35.3069200">
<ele>42.900002</ele>
<time>2024-03-20T08:17:40.864Z</time>
</trkpt>
<trkpt lat="31.0219000" lon="35.3068700">
<ele>42.590000</ele>
<time>2024-03-20T08:17:40.864Z</time>
</trkpt>
<trkpt lat="31.0213400" lon="35.3066900">
<ele>40.529999</ele>
<time>2024-03-20T08:17:40.864Z</time>
</trkpt>
<trkpt lat="31.0209100" lon="35.3064600">
<ele>39.649998</ele>
<time>2024-03-20T08:17:40.864Z</time>
</trkpt>
<trkpt lat="31.0205500" lon="35.3065100">
<ele>41.099998</ele>
<time>2024-03-20T08:17:40.864Z</time>
</trkpt>
<trkpt lat="31.0200400" lon="35.3060900">
<ele>41.000000</ele>
<time>2024-03-20T08:17:40.864Z</time>
</trkpt>
<trkpt lat="31.0198500" lon="35.3058800">
<ele>45.040001</ele>
<time>2024-03-20T08:17:40.864Z</time>
</trkpt>
<trkpt lat="31.0198000" lon="35.3058500">
<ele>45.360001</ele>
<time>2024-03-20T08:17:40.864Z</time>
</trkpt>
<trkpt lat="31.0197900" lon="35.3058500">
<ele>45.250000</ele>
<time>2024-03-20T08:17:40.864Z</time>
</trkpt>
<trkpt lat="31.0196300" lon="35.3058100">
<ele>45.040001</ele>
<time>2024-03-20T08:17:40.864Z</time>
</trkpt>
<trkpt lat="31.0194400" lon="35.3056900">
<ele>46.560001</ele>
<time>2024-03-20T08:17:40.864Z</time>
</trkpt>
<trkpt lat="31.0189800" lon="35.3056000">
<ele>44.810001</ele>
<time>2024-03-20T08:17:40.864Z</time>
</trkpt>
<trkpt lat="31.0185000" lon="35.3054100">
<ele>41.559998</ele>
<time>2024-03-20T08:17:40.864Z</time>
</trkpt>
<trkpt lat="31.0181400" lon="35.3052300">
<ele>39.189999</ele>
<time>2024-03-20T08:17:40.864Z</time>
</trkpt>
<trkpt lat="31.0174900" lon="35.3050200">
<ele>34.099998</ele>
<time>2024-03-20T08:17:40.864Z</time>
</trkpt>
<trkpt lat="31.0172800" lon="35.3049000">
<ele>36.529999</ele>
<time>2024-03-20T08:17:40.864Z</time>
</trkpt>
<trkpt lat="31.0168100" lon="35.3045100">
<ele>33.029999</ele>
<time>2024-03-20T08:17:40.864Z</time>
</trkpt>
<trkpt lat="31.0159000" lon="35.3040400">
<ele>33.540001</ele>
<time>2024-03-20T08:17:40.864Z</time>
</trkpt>
<trkpt lat="31.0158300" lon="35.3040500">
<ele>33.150002</ele>
<time>2024-03-20T08:17:40.864Z</time>
</trkpt>
<trkpt lat="31.0155200" lon="35.3042500">
<ele>33.619999</ele>
<time>2024-03-20T08:17:40.864Z</time>
</trkpt>
<trkpt lat="31.0154000" lon="35.3042400">
<ele>35.240002</ele>
<time>2024-03-20T08:17:40.864Z</time>
</trkpt>
<trkpt lat="31.0150900" lon="35.3041400">
<ele>39.220001</ele>
<time>2024-03-20T08:17:40.864Z</time>
</trkpt>
<trkpt lat="31.0150300" lon="35.3041500">
<ele>39.199997</ele>
<time>2024-03-20T08:17:40.864Z</time>
</trkpt>
<trkpt lat="31.0149800" lon="35.3042000">
<ele>38.910000</ele>
<time>2024-03-20T08:17:40.864Z</time>
</trkpt>
<trkpt lat="31.0149200" lon="35.3042000">
<ele>39.020000</ele>
<time>2024-03-20T08:17:40.864Z</time>
</trkpt>
<trkpt lat="31.0146900" lon="35.3040700">
<ele>38.340000</ele>
<time>2024-03-20T08:17:40.864Z</time>
</trkpt>
<trkpt lat="31.0144600" lon="35.3039900">
<ele>33.079998</ele>
<time>2024-03-20T08:17:40.864Z</time>
</trkpt>
<trkpt lat="31.0140100" lon="35.3036600">
<ele>25.309999</ele>
<time>2024-03-20T08:17:40.864Z</time>
</trkpt>
<trkpt lat="31.0137500" lon="35.3035400">
<ele>24.129999</ele>
<time>2024-03-20T08:17:40.864Z</time>
</trkpt>
<trkpt lat="31.0132400" lon="35.3034700">
<ele>23.000000</ele>
<time>2024-03-20T08:17:40.864Z</time>
</trkpt>
<trkpt lat="31.0124600" lon="35.3032500">
<ele>13.440001</ele>
<time>2024-03-20T08:17:40.864Z</time>
</trkpt>
<trkpt lat="31.0118800" lon="35.3028100">
<ele>12.850000</ele>
<time>2024-03-20T08:17:40.864Z</time>
</trkpt>
<trkpt lat="31.0116700" lon="35.3026900">
<ele>10.380000</ele>
<time>2024-03-20T08:17:40.864Z</time>
</trkpt>
<trkpt lat="31.0100200" lon="35.3022700">
<ele>8.840000</ele>
<time>2024-03-20T08:17:40.864Z</time>
</trkpt>
<trkpt lat="31.0096400" lon="35.3020300">
<ele>10.960000</ele>
<time>2024-03-20T08:17:40.864Z</time>
</trkpt>
<trkpt lat="31.0094400" lon="35.3018300">
<ele>8.800000</ele>
<time>2024-03-20T08:17:40.864Z</time>
</trkpt>
<trkpt lat="31.0093100" lon="35.3013600">
<ele>12.450001</ele>
<time>2024-03-20T08:17:40.864Z</time>
</trkpt>
<trkpt lat="31.0093300" lon="35.3010600">
<ele>16.720001</ele>
<time>2024-03-20T08:17:40.864Z</time>
</trkpt>
<trkpt lat="31.0093900" lon="35.3006100">
<ele>21.630001</ele>
<time>2024-03-20T08:17:40.864Z</time>
</trkpt>
<trkpt lat="31.0094800" lon="35.3004600">
<ele>22.830000</ele>
<time>2024-03-20T08:17:40.864Z</time>
</trkpt>
<trkpt lat="31.0099400" lon="35.2999200">
<ele>22.350000</ele>
<time>2024-03-20T08:17:40.864Z</time>
</trkpt>
<trkpt lat="31.0100400" lon="35.2996200">
<ele>23.620001</ele>
<time>2024-03-20T08:17:40.864Z</time>
</trkpt>
<trkpt lat="31.0100500" lon="35.2994400">
<ele>24.530001</ele>
<time>2024-03-20T08:17:40.864Z</time>
</trkpt>
<trkpt lat="31.0100100" lon="35.2992500">
<ele>24.059999</ele>
<time>2024-03-20T08:17:40.864Z</time>
</trkpt>
<trkpt lat="31.0099200" lon="35.2990700">
<ele>23.709999</ele>
<time>2024-03-20T08:17:40.864Z</time>
</trkpt>
<trkpt lat="31.0097800" lon="35.2989200">
<ele>23.209999</ele>
<time>2024-03-20T08:17:40.864Z</time>
</trkpt>
<trkpt lat="31.0097100" lon="35.2986900">
<ele>22.299999</ele>
<time>2024-03-20T08:17:40.864Z</time>
</trkpt>
<trkpt lat="31.0097400" lon="35.2984700">
<ele>23.549999</ele>
<time>2024-03-20T08:17:40.864Z</time>
</trkpt>
<trkpt lat="31.0099200" lon="35.2980100">
<ele>21.820002</ele>
<time>2024-03-20T08:17:40.864Z</time>
</trkpt>
<trkpt lat="31.0098700" lon="35.2973200">
<ele>14.829999</ele>
<time>2024-03-20T08:17:40.864Z</time>
</trkpt>
<trkpt lat="31.0097300" lon="35.2970600">
<ele>16.650000</ele>
<time>2024-03-20T08:17:40.864Z</time>
</trkpt>
<trkpt lat="31.0094300" lon="35.2969400">
<ele>24.040001</ele>
<time>2024-03-20T08:17:40.864Z</time>
</trkpt>
<trkpt lat="31.0091000" lon="35.2969300">
<ele>22.520000</ele>
<time>2024-03-20T08:17:40.864Z</time>
</trkpt>
<trkpt lat="31.0090200" lon="35.2968800">
<ele>22.330000</ele>
<time>2024-03-20T08:17:40.864Z</time>
</trkpt>
<trkpt lat="31.0088900" lon="35.2967100">
<ele>22.550001</ele>
<time>2024-03-20T08:17:40.864Z</time>
</trkpt>
<trkpt lat="31.0088600" lon="35.2966100">
<ele>22.379999</ele>
<time>2024-03-20T08:17:40.864Z</time>
</trkpt>
<trkpt lat="31.0089500" lon="35.2962000">
<ele>25.879999</ele>
<time>2024-03-20T08:17:40.864Z</time>
</trkpt>
<trkpt lat="31.0089600" lon="35.2959700">
<ele>26.940001</ele>
<time>2024-03-20T08:17:40.864Z</time>
</trkpt>
<trkpt lat="31.0088900" lon="35.2956600">
<ele>26.900000</ele>
<time>2024-03-20T08:17:40.864Z</time>
</trkpt>
<trkpt lat="31.0085900" lon="35.2947900">
<ele>24.410000</ele>
<time>2024-03-20T08:17:40.864Z</time>
</trkpt>
<trkpt lat="31.0085100" lon="35.2943800">
<ele>19.570002</ele>
<time>2024-03-20T08:17:40.864Z</time>
</trkpt>
<trkpt lat="31.0085100" lon="35.2942900">
<ele>17.450001</ele>
<time>2024-03-20T08:17:40.864Z</time>
</trkpt>
<trkpt lat="31.0086000" lon="35.2939200">
<ele>9.700000</ele>
<time>2024-03-20T08:17:40.864Z</time>
</trkpt>
<trkpt lat="31.0085800" lon="35.2936800">
<ele>4.430000</ele>
<time>2024-03-20T08:17:40.864Z</time>
</trkpt>
<trkpt lat="31.0085500" lon="35.2935700">
<ele>2.410000</ele>
<time>2024-03-20T08:17:40.864Z</time>
</trkpt>
<trkpt lat="31.0083000" lon="35.2932100">
<ele>-2.310000</ele>
<time>2024-03-20T08:17:40.864Z</time>
</trkpt>
<trkpt lat="31.0082400" lon="35.2929900">
<ele>-3.710000</ele>
<time>2024-03-20T08:17:40.864Z</time>
</trkpt>
<trkpt lat="31.0082800" lon="35.2927800">
<ele>-5.830000</ele>
<time>2024-03-20T08:17:40.864Z</time>
</trkpt>
<trkpt lat="31.0085100" lon="35.2921100">
<ele>-10.599999</ele>
<time>2024-03-20T08:17:40.864Z</time>
</trkpt>
<trkpt lat="31.0086600" lon="35.2915700">
<ele>-9.180000</ele>
<time>2024-03-20T08:17:40.864Z</time>
</trkpt>
<trkpt lat="31.0087100" lon="35.2914900">
<ele>-8.450000</ele>
<time>2024-03-20T08:17:40.864Z</time>
</trkpt>
<trkpt lat="31.0087600" lon="35.2915100">
<ele>-7.620000</ele>
<time>2024-03-20T08:17:40.864Z</time>
</trkpt>
<trkpt lat="31.0090800" lon="35.2912200">
<ele>-5.600000</ele>
<time>2024-03-20T08:17:40.864Z</time>
</trkpt>
<trkpt lat="31.0092200" lon="35.2907500">
<ele>-11.530000</ele>
<time>2024-03-20T08:17:40.864Z</time>
</trkpt>
<trkpt lat="31.0093700" lon="35.2904900">
<ele>-10.070001</ele>
<time>2024-03-20T08:17:40.864Z</time>
</trkpt>
<trkpt lat="31.0094200" lon="35.2902200">
<ele>-9.750000</ele>
<time>2024-03-20T08:17:40.864Z</time>
</trkpt>
<trkpt lat="31.0094100" lon="35.2898700">
<ele>-12.370000</ele>
<time>2024-03-20T08:17:40.864Z</time>
</trkpt>
<trkpt lat="31.0094700" lon="35.2895900">
<ele>-14.009999</ele>
<time>2024-03-20T08:17:40.864Z</time>
</trkpt>
<trkpt lat="31.0094900" lon="35.2893500">
<ele>-18.059999</ele>
<time>2024-03-20T08:17:40.864Z</time>
</trkpt>
<trkpt lat="31.0095800" lon="35.2891400">
<ele>-23.010000</ele>
<time>2024-03-20T08:17:40.864Z</time>
</trkpt>
<trkpt lat="31.0097300" lon="35.2889400">
<ele>-28.840000</ele>
<time>2024-03-20T08:17:40.864Z</time>
</trkpt>
<trkpt lat="31.0094900" lon="35.2888500">
<ele>-33.279999</ele>
<time>2024-03-20T08:17:40.864Z</time>
</trkpt>
<trkpt lat="31.0093300" lon="35.2888900">
<ele>-32.560001</ele>
<time>2024-03-20T08:17:40.864Z</time>
</trkpt>
<trkpt lat="31.0091100" lon="35.2889200">
<ele>-31.330000</ele>
<time>2024-03-20T08:17:40.864Z</time>
</trkpt>
<trkpt lat="31.0090000" lon="35.2887800">
<ele>-32.470001</ele>
<time>2024-03-20T08:17:40.864Z</time>
</trkpt>
<trkpt lat="31.0091500" lon="35.2886800">
<ele>-34.120003</ele>
<time>2024-03-20T08:17:40.864Z</time>
</trkpt>
<trkpt lat="31.0090300" lon="35.2888400">
<ele>-32.270000</ele>
<time>2024-03-20T08:17:40.864Z</time>
</trkpt>
<trkpt lat="31.0093200" lon="35.2889100">
<ele>-31.969999</ele>
<time>2024-03-20T08:17:40.864Z</time>
</trkpt>
<trkpt lat="31.0094200" lon="35.2888400">
<ele>-33.599998</ele>
<time>2024-03-20T08:17:40.864Z</time>
</trkpt>
<trkpt lat="31.0097300" lon="35.2889400">
<ele>-28.840000</ele>
<time>2024-03-20T08:17:40.864Z</time>
</trkpt>
<trkpt lat="31.0098700" lon="35.2890100">
<ele>-23.540001</ele>
<time>2024-03-20T08:17:40.864Z</time>
</trkpt>
<trkpt lat="31.0100800" lon="35.2892200">
<ele>-12.330000</ele>
<time>2024-03-20T08:17:40.864Z</time>
</trkpt>
<trkpt lat="31.0101800" lon="35.2892800">
<ele>-9.430000</ele>
<time>2024-03-20T08:17:40.864Z</time>
</trkpt>
<trkpt lat="31.0102800" lon="35.2892000">
<ele>-9.420000</ele>
<time>2024-03-20T08:17:40.864Z</time>
</trkpt>
<trkpt lat="31.0103400" lon="35.2892000">
<ele>-9.870000</ele>
<time>2024-03-20T08:17:40.864Z</time>
</trkpt>
<trkpt lat="31.0105400" lon="35.2893000">
<ele>-9.940001</ele>
<time>2024-03-20T08:17:40.864Z</time>
</trkpt>
<trkpt lat="31.0106000" lon="35.2892700">
<ele>-10.850000</ele>
<time>2024-03-20T08:17:40.864Z</time>
</trkpt>
<trkpt lat="31.0106300" lon="35.2892100">
<ele>-11.770000</ele>
<time>2024-03-20T08:17:40.864Z</time>
</trkpt>
<trkpt lat="31.0107500" lon="35.2891700">
<ele>-12.680000</ele>
<time>2024-03-20T08:17:40.864Z</time>
</trkpt>
<trkpt lat="31.0107600" lon="35.2888800">
<ele>-16.720001</ele>
<time>2024-03-20T08:17:40.864Z</time>
</trkpt>
<trkpt lat="31.0106500" lon="35.2883400">
<ele>-16.000000</ele>
<time>2024-03-20T08:17:40.864Z</time>
</trkpt>
<trkpt lat="31.0106100" lon="35.2881900">
<ele>-16.930000</ele>
<time>2024-03-20T08:17:40.864Z</time>
</trkpt>
<trkpt lat="31.0104300" lon="35.2878500">
<ele>-18.570000</ele>
<time>2024-03-20T08:17:40.864Z</time>
</trkpt>
<trkpt lat="31.0103400" lon="35.2875100">
<ele>-17.809999</ele>
<time>2024-03-20T08:17:40.864Z</time>
</trkpt>
<trkpt lat="31.0103500" lon="35.2873500">
<ele>-15.580000</ele>
<time>2024-03-20T08:17:40.864Z</time>
</trkpt>
<trkpt lat="31.0104500" lon="35.2869800">
<ele>-12.510000</ele>
<time>2024-03-20T08:17:40.864Z</time>
</trkpt>
<trkpt lat="31.0104400" lon="35.2869000">
<ele>-11.990000</ele>
<time>2024-03-20T08:17:40.864Z</time>
</trkpt>
<trkpt lat="31.0103900" lon="35.2868700">
<ele>-11.690001</ele>
<time>2024-03-20T08:17:40.864Z</time>
</trkpt>
<trkpt lat="31.0101800" lon="35.2869000">
<ele>-11.900001</ele>
<time>2024-03-20T08:17:40.864Z</time>
</trkpt>
<trkpt lat="31.0100400" lon="35.2867700">
<ele>-9.540000</ele>
<time>2024-03-20T08:17:40.864Z</time>
</trkpt>
<trkpt lat="31.0099300" lon="35.2865900">
<ele>-7.980000</ele>
<time>2024-03-20T08:17:40.864Z</time>
</trkpt>
<trkpt lat="31.0099100" lon="35.2864100">
<ele>-7.400000</ele>
<time>2024-03-20T08:17:40.864Z</time>
</trkpt>
<trkpt lat="31.0098600" lon="35.2862600">
<ele>-6.110000</ele>
<time>2024-03-20T08:17:40.864Z</time>
</trkpt>
<trkpt lat="31.0096000" lon="35.2860000">
<ele>-3.500000</ele>
<time>2024-03-20T08:17:40.864Z</time>
</trkpt>
<trkpt lat="31.0093500" lon="35.2859000">
<ele>-5.060000</ele>
<time>2024-03-20T08:17:40.864Z</time>
</trkpt>
<trkpt lat="31.0092000" lon="35.2859300">
<ele>-7.340000</ele>
<time>2024-03-20T08:17:40.864Z</time>
</trkpt>
<trkpt lat="31.0091000" lon="35.2858900">
<ele>-7.170000</ele>
<time>2024-03-20T08:17:40.864Z</time>
</trkpt>
<trkpt lat="31.0089200" lon="35.2857100">
<ele>-4.860000</ele>
<time>2024-03-20T08:17:40.864Z</time>
</trkpt>
<trkpt lat="31.0087300" lon="35.2856300">
<ele>-5.950000</ele>
<time>2024-03-20T08:17:40.864Z</time>
</trkpt>
<trkpt lat="31.0084100" lon="35.2855700">
<ele>-4.900000</ele>
<time>2024-03-20T08:17:40.864Z</time>
</trkpt>
<trkpt lat="31.0079600" lon="35.2856900">
<ele>-3.930000</ele>
<time>2024-03-20T08:17:40.864Z</time>
</trkpt>
<trkpt lat="31.0076800" lon="35.2858300">
<ele>-5.650000</ele>
<time>2024-03-20T08:17:40.864Z</time>
</trkpt>
<trkpt lat="31.0072400" lon="35.2858600">
<ele>-9.140000</ele>
<time>2024-03-20T08:17:40.864Z</time>
</trkpt>
<trkpt lat="31.0071200" lon="35.2859400">
<ele>-10.009999</ele>
<time>2024-03-20T08:17:40.864Z</time>
</trkpt>
<trkpt lat="31.0069200" lon="35.2859700">
<ele>-9.590000</ele>
<time>2024-03-20T08:17:40.864Z</time>
</trkpt>
<trkpt lat="31.0066700" lon="35.2862100">
<ele>-7.750000</ele>
<time>2024-03-20T08:17:40.864Z</time>
</trkpt>
<trkpt lat="31.0064800" lon="35.2863300">
<ele>-7.370000</ele>
<time>2024-03-20T08:17:40.864Z</time>
</trkpt>
<trkpt lat="31.0063700" lon="35.2864400">
<ele>-6.860000</ele>
<time>2024-03-20T08:17:40.864Z</time>
</trkpt>
<trkpt lat="31.0063500" lon="35.2865100">
<ele>-6.720000</ele>
<time>2024-03-20T08:17:40.864Z</time>
</trkpt>
<trkpt lat="31.0064000" lon="35.2867300">
<ele>-7.330000</ele>
<time>2024-03-20T08:17:40.864Z</time>
</trkpt>
<trkpt lat="31.0062900" lon="35.2869800">
<ele>-7.210000</ele>
<time>2024-03-20T08:17:40.864Z</time>
</trkpt>
<trkpt lat="31.0061500" lon="35.2870800">
<ele>-6.210000</ele>
<time>2024-03-20T08:17:40.864Z</time>
</trkpt>
<trkpt lat="31.0060900" lon="35.2870700">
<ele>-5.880000</ele>
<time>2024-03-20T08:17:40.864Z</time>
</trkpt>
<trkpt lat="31.0060900" lon="35.2870600">
<ele>-5.870000</ele>
<time>2024-03-20T08:17:40.864Z</time>
</trkpt>
<trkpt lat="31.0057600" lon="35.2869200">
<ele>-3.240000</ele>
<time>2024-03-20T08:17:40.864Z</time>
</trkpt>
<trkpt lat="31.0056200" lon="35.2868100">
<ele>-3.400000</ele>
<time>2024-03-20T08:17:40.864Z</time>
</trkpt>
<trkpt lat="31.0054400" lon="35.2866100">
<ele>-6.450000</ele>
<time>2024-03-20T08:17:40.864Z</time>
</trkpt>
<trkpt lat="31.0052700" lon="35.2865300">
<ele>-11.169999</ele>
<time>2024-03-20T08:17:40.864Z</time>
</trkpt>
<trkpt lat="31.0052300" lon="35.2864500">
<ele>-12.030000</ele>
<time>2024-03-20T08:17:40.864Z</time>
</trkpt>
<trkpt lat="31.0052000" lon="35.2860700">
<ele>-15.650001</ele>
<time>2024-03-20T08:17:40.864Z</time>
</trkpt>
<trkpt lat="31.0050800" lon="35.2859100">
<ele>-18.490000</ele>
<time>2024-03-20T08:17:40.864Z</time>
</trkpt>
<trkpt lat="31.0050500" lon="35.2857300">
<ele>-19.850000</ele>
<time>2024-03-20T08:17:40.864Z</time>
</trkpt>
<trkpt lat="31.0051700" lon="35.2854100">
<ele>-20.589998</ele>
<time>2024-03-20T08:17:40.864Z</time>
</trkpt>
<trkpt lat="31.0052500" lon="35.2853300">
<ele>-20.180000</ele>
<time>2024-03-20T08:17:40.864Z</time>
</trkpt>
<trkpt lat="31.0053900" lon="35.2852800">
<ele>-18.780001</ele>
<time>2024-03-20T08:17:40.864Z</time>
</trkpt>
<trkpt lat="31.0055300" lon="35.2852700">
<ele>-17.330000</ele>
<time>2024-03-20T08:17:40.864Z</time>
</trkpt>
<trkpt lat="31.0056300" lon="35.2853300">
<ele>-15.130000</ele>
<time>2024-03-20T08:17:40.864Z</time>
</trkpt>
<trkpt lat="31.0058100" lon="35.2853600">
<ele>-11.880000</ele>
<time>2024-03-20T08:17:40.864Z</time>
</trkpt>
<trkpt lat="31.0059100" lon="35.2852500">
<ele>-12.440000</ele>
<time>2024-03-20T08:17:40.864Z</time>
</trkpt>
<trkpt lat="31.0060900" lon="35.2849400">
<ele>-13.140000</ele>
<time>2024-03-20T08:17:40.864Z</time>
</trkpt>
<trkpt lat="31.0061800" lon="35.2846800">
<ele>-15.100000</ele>
<time>2024-03-20T08:17:40.864Z</time>
</trkpt>
<trkpt lat="31.0064800" lon="35.2841700">
<ele>-15.650001</ele>
<time>2024-03-20T08:17:40.864Z</time>
</trkpt>
<trkpt lat="31.0065600" lon="35.2838800">
<ele>-17.830000</ele>
<time>2024-03-20T08:17:40.864Z</time>
</trkpt>
<trkpt lat="31.0066900" lon="35.2837500">
<ele>-17.540001</ele>
<time>2024-03-20T08:17:40.864Z</time>
</trkpt>
<trkpt lat="31.0067700" lon="35.2837100">
<ele>-16.300001</ele>
<time>2024-03-20T08:17:40.864Z</time>
</trkpt>
<trkpt lat="31.0069400" lon="35.2837000">
<ele>-13.130000</ele>
<time>2024-03-20T08:17:40.864Z</time>
</trkpt>
<trkpt lat="31.0072700" lon="35.2838300">
<ele>-5.500000</ele>
<time>2024-03-20T08:17:40.864Z</time>
</trkpt>
<trkpt lat="31.0074000" lon="35.2838400">
<ele>-2.270000</ele>
<time>2024-03-20T08:17:40.864Z</time>
</trkpt>
<trkpt lat="31.0078600" lon="35.2837300">
<ele>-0.370000</ele>
<time>2024-03-20T08:17:40.864Z</time>
</trkpt>
<trkpt lat="31.0080900" lon="35.2838100">
<ele>-1.300000</ele>
<time>2024-03-20T08:17:40.864Z</time>
</trkpt>
<trkpt lat="31.0083300" lon="35.2839500">
<ele>0.650000</ele>
<time>2024-03-20T08:17:40.864Z</time>
</trkpt>
<trkpt lat="31.0084500" lon="35.2839700">
<ele>-1.030000</ele>
<time>2024-03-20T08:17:40.864Z</time>
</trkpt>
<trkpt lat="31.0085800" lon="35.2839400">
<ele>-3.960000</ele>
<time>2024-03-20T08:17:40.864Z</time>
</trkpt>
<trkpt lat="31.0088000" lon="35.2837900">
<ele>-11.070000</ele>
<time>2024-03-20T08:17:40.864Z</time>
</trkpt>
<trkpt lat="31.0089100" lon="35.2837600">
<ele>-13.330000</ele>
<time>2024-03-20T08:17:40.864Z</time>
</trkpt>
<trkpt lat="31.0093300" lon="35.2837700">
<ele>-10.430000</ele>
<time>2024-03-20T08:17:40.864Z</time>
</trkpt>
<trkpt lat="31.0096300" lon="35.2836800">
<ele>-10.850000</ele>
<time>2024-03-20T08:17:40.864Z</time>
</trkpt>
<trkpt lat="31.0098000" lon="35.2837700">
<ele>-7.770000</ele>
<time>2024-03-20T08:17:40.864Z</time>
</trkpt>
<trkpt lat="31.0099700" lon="35.2837600">
<ele>-7.830000</ele>
<time>2024-03-20T08:17:40.864Z</time>
</trkpt>
<trkpt lat="31.0101400" lon="35.2836700">
<ele>-8.190001</ele>
<time>2024-03-20T08:17:40.864Z</time>
</trkpt>
<trkpt lat="31.0102300" lon="35.2835700">
<ele>-9.790000</ele>
<time>2024-03-20T08:17:40.864Z</time>
</trkpt>
<trkpt lat="31.0102600" lon="35.2835100">
<ele>-10.000000</ele>
<time>2024-03-20T08:17:40.864Z</time>
</trkpt>
<trkpt lat="31.0102200" lon="35.2833800">
<ele>-12.120000</ele>
<time>2024-03-20T08:17:40.864Z</time>
</trkpt>
<trkpt lat="31.0103200" lon="35.2832200">
<ele>-12.710000</ele>
<time>2024-03-20T08:17:40.864Z</time>
</trkpt>
<trkpt lat="31.0106300" lon="35.2830300">
<ele>-15.610000</ele>
<time>2024-03-20T08:17:40.864Z</time>
</trkpt>
<trkpt lat="31.0106800" lon="35.2829100">
<ele>-16.600000</ele>
<time>2024-03-20T08:17:40.864Z</time>
</trkpt>
<trkpt lat="31.0106800" lon="35.2827600">
<ele>-16.879999</ele>
<time>2024-03-20T08:17:40.864Z</time>
</trkpt>
<trkpt lat="31.0104300" lon="35.2822200">
<ele>-1.520000</ele>
<time>2024-03-20T08:17:40.864Z</time>
</trkpt>
<trkpt lat="31.0103600" lon="35.2821800">
<ele>-0.750000</ele>
<time>2024-03-20T08:17:40.864Z</time>
</trkpt>
<trkpt lat="31.0099900" lon="35.2821800">
<ele>-1.510000</ele>
<time>2024-03-20T08:17:40.864Z</time>
</trkpt>
<trkpt lat="31.0097600" lon="35.2821100">
<ele>-0.270000</ele>
<time>2024-03-20T08:17:40.864Z</time>
</trkpt>
<trkpt lat="31.0092500" lon="35.2821500">
<ele>-2.440000</ele>
<time>2024-03-20T08:17:40.864Z</time>
</trkpt>
<trkpt lat="31.0088500" lon="35.2820400">
<ele>-2.720000</ele>
<time>2024-03-20T08:17:40.864Z</time>
</trkpt>
<trkpt lat="31.0084100" lon="35.2819900">
<ele>-5.490000</ele>
<time>2024-03-20T08:17:40.864Z</time>
</trkpt>
<trkpt lat="31.0080400" lon="35.2819000">
<ele>-7.630000</ele>
<time>2024-03-20T08:17:40.864Z</time>
</trkpt>
<trkpt lat="31.0078300" lon="35.2818300">
<ele>-8.309999</ele>
<time>2024-03-20T08:17:40.864Z</time>
</trkpt>
<trkpt lat="31.0075700" lon="35.2816500">
<ele>-10.150001</ele>
<time>2024-03-20T08:17:40.864Z</time>
</trkpt>
<trkpt lat="31.0074700" lon="35.2815300">
<ele>-11.150000</ele>
<time>2024-03-20T08:17:40.864Z</time>
</trkpt>
<trkpt lat="31.0073900" lon="35.2809800">
<ele>-15.850000</ele>
<time>2024-03-20T08:17:40.864Z</time>
</trkpt>
<trkpt lat="31.0072600" lon="35.2807200">
<ele>-17.670000</ele>
<time>2024-03-20T08:17:40.864Z</time>
</trkpt>
<trkpt lat="31.0073700" lon="35.2805900">
<ele>-16.470001</ele>
<time>2024-03-20T08:17:40.864Z</time>
</trkpt>
<trkpt lat="31.0074100" lon="35.2802200">
<ele>-17.320000</ele>
<time>2024-03-20T08:17:40.864Z</time>
</trkpt>
<trkpt lat="31.0074300" lon="35.2794400">
<ele>-16.480000</ele>
<time>2024-03-20T08:17:40.864Z</time>
</trkpt>
<trkpt lat="31.0076600" lon="35.2788000">
<ele>-16.879999</ele>
<time>2024-03-20T08:17:40.864Z</time>
</trkpt>
<trkpt lat="31.0077700" lon="35.2783400">
<ele>-19.650002</ele>
<time>2024-03-20T08:17:40.864Z</time>
</trkpt>
<trkpt lat="31.0078800" lon="35.2780700">
<ele>-16.170000</ele>
<time>2024-03-20T08:17:40.864Z</time>
</trkpt>
<trkpt lat="31.0080700" lon="35.2774800">
<ele>-9.540000</ele>
<time>2024-03-20T08:17:40.864Z</time>
</trkpt>
<trkpt lat="31.0081600" lon="35.2773800">
<ele>-7.950000</ele>
<time>2024-03-20T08:17:40.864Z</time>
</trkpt>
<trkpt lat="31.0084900" lon="35.2772500">
<ele>-8.010000</ele>
<time>2024-03-20T08:17:40.864Z</time>
</trkpt>
<trkpt lat="31.0088000" lon="35.2771700">
<ele>-4.560000</ele>
<time>2024-03-20T08:17:40.864Z</time>
</trkpt>
<trkpt lat="31.0090300" lon="35.2767900">
<ele>-5.160000</ele>
<time>2024-03-20T08:17:40.864Z</time>
</trkpt>
<trkpt lat="31.0091900" lon="35.2763700">
<ele>1.920000</ele>
<time>2024-03-20T08:17:40.864Z</time>
</trkpt>
<trkpt lat="31.0093600" lon="35.2761700">
<ele>1.880000</ele>
<time>2024-03-20T08:17:40.864Z</time>
</trkpt>
<trkpt lat="31.0094300" lon="35.2760500">
<ele>2.740000</ele>
<time>2024-03-20T08:17:40.864Z</time>
</trkpt>
<trkpt lat="31.0094300" lon="35.2759100">
<ele>7.700000</ele>
<time>2024-03-20T08:17:40.864Z</time>
</trkpt>
<trkpt lat="31.0093300" lon="35.2754200">
<ele>21.320002</ele>
<time>2024-03-20T08:17:40.864Z</time>
</trkpt>
<trkpt lat="31.0093900" lon="35.2752300">
<ele>22.850000</ele>
<time>2024-03-20T08:17:40.864Z</time>
</trkpt>
<trkpt lat="31.0094000" lon="35.2751600">
<ele>23.320000</ele>
<time>2024-03-20T08:17:40.864Z</time>
</trkpt>
<trkpt lat="31.0093700" lon="35.2750900">
<ele>24.720001</ele>
<time>2024-03-20T08:17:40.864Z</time>
</trkpt>
<trkpt lat="31.0091200" lon="35.2748400">
<ele>30.960001</ele>
<time>2024-03-20T08:17:40.864Z</time>
</trkpt>
<trkpt lat="31.0091100" lon="35.2748400">
<ele>31.170000</ele>
<time>2024-03-20T08:17:40.864Z</time>
</trkpt>
<trkpt lat="31.0089500" lon="35.2746700">
<ele>34.850002</ele>
<time>2024-03-20T08:17:40.864Z</time>
</trkpt>
<trkpt lat="31.0088500" lon="35.2746200">
<ele>37.209999</ele>
<time>2024-03-20T08:17:40.864Z</time>
</trkpt>
<trkpt lat="31.0086200" lon="35.2745800">
<ele>44.669998</ele>
<time>2024-03-20T08:17:40.864Z</time>
</trkpt>
<trkpt lat="31.0084200" lon="35.2747200">
<ele>49.420002</ele>
<time>2024-03-20T08:17:40.864Z</time>
</trkpt>
<trkpt lat="31.0083400" lon="35.2748100">
<ele>49.590000</ele>
<time>2024-03-20T08:17:40.864Z</time>
</trkpt>
<trkpt lat="31.0080900" lon="35.2749500">
<ele>51.379997</ele>
<time>2024-03-20T08:17:40.864Z</time>
</trkpt>
<trkpt lat="31.0077800" lon="35.2753000">
<ele>58.280003</ele>
<time>2024-03-20T08:17:40.864Z</time>
</trkpt>
<trkpt lat="31.0076200" lon="35.2754400">
<ele>58.919998</ele>
<time>2024-03-20T08:17:40.864Z</time>
</trkpt>
<trkpt lat="31.0074600" lon="35.2755400">
<ele>62.029999</ele>
<time>2024-03-20T08:17:40.864Z</time>
</trkpt>
<trkpt lat="31.0072800" lon="35.2755300">
<ele>61.869999</ele>
<time>2024-03-20T08:17:40.864Z</time>
</trkpt>
<trkpt lat="31.0069300" lon="35.2753100">
<ele>56.840000</ele>
<time>2024-03-20T08:17:40.864Z</time>
</trkpt>
<trkpt lat="31.0062400" lon="35.2751400">
<ele>52.689999</ele>
<time>2024-03-20T08:17:40.864Z</time>
</trkpt>
<trkpt lat="31.0058500" lon="35.2749600">
<ele>53.360001</ele>
<time>2024-03-20T08:17:40.864Z</time>
</trkpt>
<trkpt lat="31.0056100" lon="35.2749200">
<ele>52.540001</ele>
<time>2024-03-20T08:17:40.864Z</time>
</trkpt>
<trkpt lat="31.0052900" lon="35.2748000">
<ele>52.720001</ele>
<time>2024-03-20T08:17:40.864Z</time>
</trkpt>
<trkpt lat="31.0052900" lon="35.2747900">
<ele>52.759998</ele>
<time>2024-03-20T08:17:40.864Z</time>
</trkpt>
<trkpt lat="31.0048400" lon="35.2747200">
<ele>54.570000</ele>
<time>2024-03-20T08:17:40.864Z</time>
</trkpt>
<trkpt lat="31.0045700" lon="35.2751500">
<ele>51.940002</ele>
<time>2024-03-20T08:17:40.864Z</time>
</trkpt>
<trkpt lat="31.0042300" lon="35.2759100">
<ele>49.280003</ele>
<time>2024-03-20T08:17:40.864Z</time>
</trkpt>
<trkpt lat="31.0036900" lon="35.2769200">
<ele>44.799999</ele>
<time>2024-03-20T08:17:40.864Z</time>
</trkpt>
<trkpt lat="31.0032000" lon="35.2774800">
<ele>46.010002</ele>
<time>2024-03-20T08:17:40.864Z</time>
</trkpt>
<trkpt lat="31.0025700" lon="35.2783000">
<ele>40.039997</ele>
<time>2024-03-20T08:17:40.864Z</time>
</trkpt>
<trkpt lat="31.0022000" lon="35.2790000">
<ele>37.160000</ele>
<time>2024-03-20T08:17:40.864Z</time>
</trkpt>
<trkpt lat="31.0019200" lon="35.2797100">
<ele>34.860001</ele>
<time>2024-03-20T08:17:40.864Z</time>
</trkpt>
<trkpt lat="31.0016700" lon="35.2795700">
<ele>32.490002</ele>
<time>2024-03-20T08:17:40.864Z</time>
</trkpt>
<trkpt lat="31.0016400" lon="35.2796200">
<ele>31.960001</ele>
<time>2024-03-20T08:17:40.864Z</time>
</trkpt>
</trkseg>
</trk>
</gpx>
